Time,TemperatureF,DewpointF,PressureIn,WindDirection,WindDirectionDegrees,WindSpeedMPH,WindSpeedGustMPH,Humidity,HourlyPrecipIn,Conditions,Clouds,dailyrainin,SoftwareType,DateUTC
2013-05-07 00:01:00,68.0,62.0,29.99,SSW,202,6.0,6.0,81,0.00,,,0.00,TxWx,2013-05-07 05:01:00,
2013-05-07 00:02:00,68.0,62.0,29.99,SSW,202,10.0,10.0,81,0.00,,,0.00,TxWx,2013-05-07 05:02:00,
2013-05-07 00:03:00,68.0,62.0,29.99,South,180,6.0,6.0,81,0.00,,,0.00,TxWx,2013-05-07 05:03:00,
2013-05-07 00:04:00,68.0,62.0,29.99,SSW,202,6.0,6.0,81,0.00,,,0.00,TxWx,2013-05-07 05:04:00,
2013-05-07 00:07:00,68.0,62.0,29.99,SSW,202,4.0,4.0,80,0.00,,,0.00,TxWx,2013-05-07 05:07:00,
2013-05-07 00:08:00,68.0,62.0,29.99,South,180,7.0,7.0,81,0.00,,,0.00,TxWx,2013-05-07 05:08:00,
2013-05-07 00:09:00,68.0,62.0,29.99,SW,225,6.0,7.0,80,0.00,,,0.00,TxWx,2013-05-07 05:09:00,
2013-05-07 00:12:00,68.0,62.0,29.99,SSW,202,7.0,8.0,80,0.00,,,0.00,TxWx,2013-05-07 05:12:00,
2013-05-07 00:13:00,68.0,62.0,29.99,SSW,202,5.0,6.0,80,0.00,,,0.00,TxWx,2013-05-07 05:13:00,
2013-05-07 00:14:00,68.0,62.0,29.99,SSW,202,7.0,8.0,80,0.00,,,0.00,TxWx,2013-05-07 05:14:00,
2013-05-07 00:15:00,68.0,62.0,29.99,SSW,202,6.0,7.0,80,0.00,,,0.00,TxWx,2013-05-07 05:15:00,
2013-05-07 00:17:00,68.0,62.0,29.99,SSW,202,10.0,11.0,80,0.00,,,0.00,TxWx,2013-05-07 05:17:00,
2013-05-07 00:19:00,68.0,62.0,29.99,SSW,202,4.0,4.0,80,0.00,,,0.00,TxWx,2013-05-07 05:19:00,
2013-05-07 00:20:00,68.0,62.0,29.99,SSW,202,6.0,8.0,80,0.00,,,0.00,TxWx,2013-05-07 05:20:00,
2013-05-07 00:21:00,68.0,62.0,29.99,SW,225,5.0,5.0,80,0.00,,,0.00,TxWx,2013-05-07 05:21:00,
2013-05-07 00:23:00,68.0,62.0,29.99,SSW,202,6.0,7.0,80,0.00,,,0.00,TxWx,2013-05-07 05:23:00,
2013-05-07 00:24:00,68.0,62.0,29.99,SW,225,5.0,5.0,80,0.00,,,0.00,TxWx,2013-05-07 05:24:00,
2013-05-07 00:26:00,68.0,62.0,29.99,SSW,202,8.0,8.0,80,0.00,,,0.00,TxWx,2013-05-07 05:26:00,
2013-05-07 00:28:00,68.0,62.0,30.00,SSW,202,4.0,5.0,81,0.00,,,0.00,TxWx,2013-05-07 05:28:00,
2013-05-07 00:29:00,68.0,62.0,30.00,West,270,2.0,3.0,80,0.00,,,0.00,TxWx,2013-05-07 05:29:00,
2013-05-07 00:30:00,68.0,62.0,30.00,West,270,4.0,5.0,81,0.00,,,0.00,TxWx,2013-05-07 05:30:00,
2013-05-07 00:31:00,68.0,62.0,30.00,WSW,247,3.0,3.0,80,0.00,,,0.00,TxWx,2013-05-07 05:31:00,
2013-05-07 00:33:00,68.0,62.0,30.00,SW,225,5.0,5.0,81,0.00,,,0.00,TxWx,2013-05-07 05:33:00,
2013-05-07 00:35:00,68.0,62.0,30.00,SSW,202,3.0,3.0,80,0.00,,,0.00,TxWx,2013-05-07 05:35:00,
2013-05-07 00:37:00,68.0,62.0,29.99,SW,225,5.0,6.0,81,0.00,,,0.00,TxWx,2013-05-07 05:37:00,
2013-05-07 00:39:00,68.0,62.0,29.99,SW,225,4.0,4.0,81,0.00,,,0.00,TxWx,2013-05-07 05:39:00,
2013-05-07 00:40:00,68.0,62.0,29.99,SSW,202,3.0,3.0,81,0.00,,,0.00,TxWx,2013-05-07 05:40:00,
2013-05-07 00:41:00,68.0,62.0,29.99,WSW,247,4.0,5.0,81,0.00,,,0.00,TxWx,2013-05-07 05:41:00,
2013-05-07 00:42:00,68.0,62.0,29.99,SW,225,3.0,3.0,81,0.00,,,0.00,TxWx,2013-05-07 05:42:00,
2013-05-07 00:46:00,68.0,62.0,29.99,SW,225,4.0,4.0,81,0.00,,,0.00,TxWx,2013-05-07 05:46:00,
2013-05-07 00:47:00,68.0,62.0,29.99,WSW,247,3.0,3.0,81,0.00,,,0.00,TxWx,2013-05-07 05:47:00,
2013-05-07 00:49:00,68.0,62.0,29.99,SSW,202,3.0,3.0,81,0.00,,,0.00,TxWx,2013-05-07 05:49:00,
2013-05-07 00:52:00,68.0,62.0,29.99,SW,225,5.0,5.0,81,0.00,,,0.00,TxWx,2013-05-07 05:52:00,
2013-05-07 00:54:00,68.0,62.0,29.99,SW,225,5.0,5.0,81,0.00,,,0.00,TxWx,2013-05-07 05:54:00,
2013-05-07 00:55:00,68.0,62.0,29.99,SW,225,4.0,5.0,81,0.00,,,0.00,TxWx,2013-05-07 05:55:00,
2013-05-07 00:56:00,68.0,62.0,29.99,SW,225,4.0,5.0,81,0.00,,,0.00,TxWx,2013-05-07 05:56:00,
2013-05-07 00:58:00,68.0,62.0,29.99,WSW,247,4.0,5.0,82,0.00,,,0.00,TxWx,2013-05-07 05:58:00,
2013-05-07 01:01:00,68.0,62.0,29.99,SW,225,3.0,3.0,82,0.00,,,0.00,TxWx,2013-05-07 06:01:00,
2013-05-07 01:02:00,68.0,62.0,29.99,SW,225,3.0,3.0,82,0.00,,,0.00,TxWx,2013-05-07 06:02:00,
2013-05-07 01:03:00,68.0,62.0,29.99,SW,225,3.0,3.0,82,0.00,,,0.00,TxWx,2013-05-07 06:03:00,
2013-05-07 01:06:00,68.0,62.0,29.99,SW,225,4.0,5.0,82,0.00,,,0.00,TxWx,2013-05-07 06:06:00,
2013-05-07 01:07:00,68.0,62.0,29.99,SSW,202,5.0,5.0,82,0.00,,,0.00,TxWx,2013-05-07 06:07:00,
2013-05-07 01:08:00,68.0,62.0,29.99,SW,225,5.0,5.0,82,0.00,,,0.00,TxWx,2013-05-07 06:08:00,
2013-05-07 01:09:00,68.0,62.0,29.99,SW,225,4.0,4.0,82,0.00,,,0.00,TxWx,2013-05-07 06:09:00,
2013-05-07 01:11:00,68.0,62.0,29.99,SW,225,3.0,3.0,82,0.00,,,0.00,TxWx,2013-05-07 06:11:00,
2013-05-07 01:13:00,68.0,62.0,29.99,WSW,247,3.0,3.0,82,0.00,,,0.00,TxWx,2013-05-07 06:13:00,
2013-05-07 01:14:00,68.0,62.0,29.99,West,270,3.0,3.0,82,0.00,,,0.00,TxWx,2013-05-07 06:14:00,
2013-05-07 01:16:00,68.0,62.0,30.00,West,270,2.0,3.0,83,0.00,,,0.00,TxWx,2013-05-07 06:16:00,
2013-05-07 01:18:00,68.0,62.0,30.00,WSW,247,3.0,3.0,83,0.00,,,0.00,TxWx,2013-05-07 06:18:00,
2013-05-07 01:19:00,68.0,62.0,30.00,WSW,247,3.0,3.0,83,0.00,,,0.00,TxWx,2013-05-07 06:19:00,
2013-05-07 01:20:00,67.0,61.0,30.00,WSW,247,3.0,3.0,83,0.00,,,0.00,TxWx,2013-05-07 06:20:00,
2013-05-07 01:22:00,67.0,62.0,29.99,WSW,247,3.0,3.0,83,0.00,,,0.00,TxWx,2013-05-07 06:22:00,
2013-05-07 01:24:00,67.0,62.0,29.99,SW,225,3.0,4.0,83,0.00,,,0.00,TxWx,2013-05-07 06:24:00,
2013-05-07 01:25:00,67.0,62.0,29.99,SW,225,3.0,3.0,83,0.00,,,0.00,TxWx,2013-05-07 06:25:00,
2013-05-07 01:26:00,67.0,62.0,29.99,SSW,202,3.0,3.0,84,0.00,,,0.00,TxWx,2013-05-07 06:26:00,
2013-05-07 01:28:00,67.0,62.0,29.99,SW,225,3.0,3.0,84,0.00,,,0.00,TxWx,2013-05-07 06:28:00,
2013-05-07 01:31:00,67.0,62.0,29.99,WSW,247,3.0,3.0,84,0.00,,,0.00,TxWx,2013-05-07 06:31:00,
2013-05-07 01:32:00,67.0,62.0,29.99,SW,225,2.0,3.0,84,0.00,,,0.00,TxWx,2013-05-07 06:32:00,
2013-05-07 01:33:00,67.0,62.0,29.99,SW,225,3.0,3.0,84,0.00,,,0.00,TxWx,2013-05-07 06:33:00,
2013-05-07 01:34:00,67.0,62.0,29.99,SSW,202,3.0,3.0,84,0.00,,,0.00,TxWx,2013-05-07 06:34:00,
2013-05-07 01:36:00,67.0,62.0,29.99,SW,225,3.0,3.0,84,0.00,,,0.00,TxWx,2013-05-07 06:36:00,
2013-05-07 01:37:00,67.0,62.0,29.99,SW,225,3.0,3.0,84,0.00,,,0.00,TxWx,2013-05-07 06:37:00,
2013-05-07 01:40:00,67.0,62.0,29.99,SW,225,3.0,3.0,84,0.00,,,0.00,TxWx,2013-05-07 06:40:00,
2013-05-07 01:41:00,67.0,62.0,29.99,SW,225,3.0,3.0,84,0.00,,,0.00,TxWx,2013-05-07 06:41:00,
2013-05-07 01:43:00,67.0,62.0,29.99,SW,225,3.0,3.0,84,0.00,,,0.00,TxWx,2013-05-07 06:43:00,
2013-05-07 01:44:00,67.0,62.0,29.99,SW,225,3.0,3.0,84,0.00,,,0.00,TxWx,2013-05-07 06:44:00,
2013-05-07 01:46:00,67.0,62.0,29.99,SSW,202,3.0,3.0,84,0.00,,,0.00,TxWx,2013-05-07 06:46:00,
2013-05-07 01:47:00,67.0,62.0,29.98,SSW,202,3.0,3.0,84,0.00,,,0.00,TxWx,2013-05-07 06:47:00,
2013-05-07 01:50:00,67.0,62.0,29.98,SSW,202,3.0,3.0,85,0.00,,,0.00,TxWx,2013-05-07 06:50:00,
2013-05-07 01:52:00,67.0,62.0,29.98,South,180,3.0,3.0,85,0.00,,,0.00,TxWx,2013-05-07 06:52:00,
2013-05-07 01:53:00,67.0,62.0,29.98,SSW,202,3.0,3.0,85,0.00,,,0.00,TxWx,2013-05-07 06:53:00,
2013-05-07 01:55:00,67.0,62.0,29.98,South,180,3.0,3.0,85,0.00,,,0.00,TxWx,2013-05-07 06:55:00,
2013-05-07 01:56:00,67.0,62.0,29.98,South,180,3.0,3.0,85,0.00,,,0.00,TxWx,2013-05-07 06:56:00,
2013-05-07 01:58:00,67.0,62.0,29.97,South,180,3.0,3.0,85,0.00,,,0.00,TxWx,2013-05-07 06:58:00,
2013-05-07 01:59:00,67.0,62.0,29.97,SSE,157,3.0,3.0,85,0.00,,,0.00,TxWx,2013-05-07 06:59:00,
2013-05-07 02:02:00,67.0,62.0,29.97,SSE,157,3.0,4.0,85,0.00,,,0.00,TxWx,2013-05-07 07:02:00,
2013-05-07 02:05:00,67.0,62.0,29.97,SSE,157,3.0,4.0,86,0.00,,,0.00,TxWx,2013-05-07 07:05:00,
2013-05-07 02:06:00,67.0,62.0,29.97,SSE,157,3.0,3.0,86,0.00,,,0.00,TxWx,2013-05-07 07:06:00,
2013-05-07 02:08:00,67.0,62.0,29.97,South,180,3.0,3.0,86,0.00,,,0.00,TxWx,2013-05-07 07:08:00,
2013-05-07 02:12:00,67.0,63.0,29.97,SSE,157,3.0,3.0,86,0.00,,,0.00,TxWx,2013-05-07 07:12:00,
2013-05-07 02:13:00,67.0,63.0,29.97,South,180,3.0,3.0,87,0.00,,,0.00,TxWx,2013-05-07 07:13:00,
2013-05-07 02:15:00,67.0,63.0,29.97,South,180,3.0,3.0,87,0.00,,,0.00,TxWx,2013-05-07 07:15:00,
2013-05-07 02:16:00,67.0,63.0,29.97,SSW,202,3.0,3.0,87,0.00,,,0.00,TxWx,2013-05-07 07:16:00,
2013-05-07 02:18:00,67.0,63.0,29.97,South,180,3.0,4.0,87,0.00,,,0.00,TxWx,2013-05-07 07:18:00,
2013-05-07 02:19:00,67.0,63.0,29.97,South,180,4.0,4.0,87,0.00,,,0.00,TxWx,2013-05-07 07:19:00,
2013-05-07 02:20:00,67.0,63.0,29.97,SSW,202,4.0,4.0,87,0.00,,,0.00,TxWx,2013-05-07 07:20:00,
2013-05-07 02:23:00,67.0,63.0,29.97,SSW,202,5.0,5.0,87,0.00,,,0.00,TxWx,2013-05-07 07:23:00,
2013-05-07 02:25:00,67.0,63.0,29.97,South,180,3.0,4.0,87,0.00,,,0.00,TxWx,2013-05-07 07:25:00,
2013-05-07 02:27:00,66.0,62.0,29.97,South,180,3.0,3.0,87,0.00,,,0.00,TxWx,2013-05-07 07:27:00,
2013-05-07 02:31:00,66.0,62.0,29.97,SSW,202,2.0,3.0,88,0.00,,,0.00,TxWx,2013-05-07 07:31:00,
2013-05-07 02:32:00,66.0,62.0,29.97,South,180,2.0,3.0,88,0.00,,,0.00,TxWx,2013-05-07 07:32:00,
2013-05-07 02:33:00,66.0,62.0,29.97,SSW,202,2.0,2.0,88,0.00,,,0.00,TxWx,2013-05-07 07:33:00,
2013-05-07 02:35:00,66.0,62.0,29.97,SSW,202,1.0,1.0,88,0.00,,,0.00,TxWx,2013-05-07 07:35:00,
2013-05-07 02:37:00,67.0,63.0,29.97,SSW,202,1.0,1.0,88,0.00,,,0.00,TxWx,2013-05-07 07:37:00,
2013-05-07 02:38:00,67.0,63.0,29.97,SSW,202,1.0,1.0,88,0.00,,,0.00,TxWx,2013-05-07 07:38:00,
2013-05-07 02:39:00,67.0,63.0,29.97,South,180,1.0,2.0,88,0.00,,,0.00,TxWx,2013-05-07 07:39:00,
2013-05-07 02:42:00,67.0,63.0,29.97,South,180,1.0,1.0,88,0.00,,,0.00,TxWx,2013-05-07 07:42:00,
2013-05-07 02:43:00,67.0,63.0,29.97,South,180,1.0,1.0,88,0.00,,,0.00,TxWx,2013-05-07 07:43:00,
2013-05-07 02:45:00,67.0,63.0,29.97,South,180,1.0,1.0,88,0.00,,,0.00,TxWx,2013-05-07 07:45:00,
2013-05-07 02:47:00,67.0,63.0,29.97,South,180,0.0,1.0,88,0.00,,,0.00,TxWx,2013-05-07 07:47:00,
2013-05-07 02:48:00,67.0,63.0,29.97,South,180,1.0,1.0,88,0.00,,,0.00,TxWx,2013-05-07 07:48:00,
2013-05-07 02:50:00,67.0,63.0,29.97,South,180,1.0,1.0,88,0.00,,,0.00,TxWx,2013-05-07 07:50:00,
2013-05-07 02:52:00,67.0,63.0,29.97,South,180,1.0,1.0,88,0.00,,,0.00,TxWx,2013-05-07 07:52:00,
2013-05-07 02:54:00,67.0,63.0,29.97,South,180,1.0,1.0,88,0.00,,,0.00,TxWx,2013-05-07 07:54:00,
2013-05-07 02:56:00,67.0,63.0,29.97,ENE,67,1.0,2.0,89,0.00,,,0.00,TxWx,2013-05-07 07:56:00,
2013-05-07 02:57:00,67.0,63.0,29.97,East,90,1.0,1.0,89,0.00,,,0.00,TxWx,2013-05-07 07:57:00,
2013-05-07 02:59:00,67.0,63.0,29.97,East,90,1.0,1.0,89,0.00,,,0.00,TxWx,2013-05-07 07:59:00,
2013-05-07 03:01:00,68.0,65.0,29.97,ESE,112,1.0,2.0,89,0.00,,,0.00,TxWx,2013-05-07 08:01:00,
2013-05-07 03:04:00,68.0,64.0,29.97,SE,135,1.0,1.0,89,0.00,,,0.00,TxWx,2013-05-07 08:04:00,
2013-05-07 03:07:00,68.0,64.0,29.97,West,270,0.0,0.0,89,0.00,,,0.00,TxWx,2013-05-07 08:07:00,
2013-05-07 03:09:00,68.0,65.0,29.97,East,90,1.0,1.0,89,0.00,,,0.00,TxWx,2013-05-07 08:09:00,
2013-05-07 03:10:00,68.0,64.0,29.97,East,90,1.0,1.0,89,0.00,,,0.00,TxWx,2013-05-07 08:10:00,
2013-05-07 03:11:00,68.0,65.0,29.97,East,90,2.0,2.0,89,0.00,,,0.00,TxWx,2013-05-07 08:11:00,
2013-05-07 03:12:00,68.0,65.0,29.97,SE,135,1.0,2.0,89,0.00,,,0.00,TxWx,2013-05-07 08:12:00,
2013-05-07 03:15:00,68.0,65.0,29.97,SSE,157,1.0,2.0,89,0.00,,,0.00,TxWx,2013-05-07 08:15:00,
2013-05-07 03:16:00,68.0,65.0,29.97,SSE,157,1.0,2.0,89,0.00,,,0.00,TxWx,2013-05-07 08:16:00,
2013-05-07 03:18:00,68.0,65.0,29.97,SSE,157,2.0,2.0,89,0.00,,,0.00,TxWx,2013-05-07 08:18:00,
2013-05-07 03:20:00,68.0,65.0,29.97,SSE,157,3.0,3.0,89,0.00,,,0.00,TxWx,2013-05-07 08:20:00,
2013-05-07 03:21:00,68.0,65.0,29.97,SSE,157,2.0,2.0,89,0.00,,,0.00,TxWx,2013-05-07 08:21:00,
2013-05-07 03:22:00,68.0,65.0,29.97,SSE,157,2.0,2.0,89,0.00,,,0.00,TxWx,2013-05-07 08:22:00,
2013-05-07 03:23:00,68.0,64.0,29.97,SSE,157,2.0,2.0,89,0.00,,,0.00,TxWx,2013-05-07 08:23:00,
2013-05-07 03:26:00,68.0,64.0,29.97,SSE,157,2.0,2.0,89,0.00,,,0.00,TxWx,2013-05-07 08:26:00,
2013-05-07 03:28:00,68.0,64.0,29.97,SSE,157,2.0,3.0,89,0.00,,,0.00,TxWx,2013-05-07 08:28:00,
2013-05-07 03:29:00,68.0,64.0,29.98,SSE,157,2.0,2.0,89,0.00,,,0.00,TxWx,2013-05-07 08:29:00,
2013-05-07 03:30:00,69.0,65.0,29.98,South,180,2.0,3.0,89,0.00,,,0.00,TxWx,2013-05-07 08:30:00,
2013-05-07 03:32:00,68.0,64.0,29.98,South,180,3.0,3.0,88,0.00,,,0.00,TxWx,2013-05-07 08:32:00,
2013-05-07 03:34:00,68.0,64.0,29.98,South,180,3.0,3.0,88,0.00,,,0.00,TxWx,2013-05-07 08:34:00,
2013-05-07 03:35:00,68.0,64.0,29.98,SSW,202,3.0,3.0,88,0.00,,,0.00,TxWx,2013-05-07 08:35:00,
2013-05-07 03:36:00,68.0,64.0,29.98,South,180,3.0,3.0,88,0.00,,,0.00,TxWx,2013-05-07 08:36:00,
2013-05-07 03:38:00,68.0,64.0,29.98,South,180,3.0,3.0,88,0.00,,,0.00,TxWx,2013-05-07 08:38:00,
2013-05-07 03:39:00,68.0,64.0,29.98,South,180,3.0,3.0,88,0.00,,,0.00,TxWx,2013-05-07 08:39:00,
2013-05-07 03:40:00,68.0,64.0,29.98,South,180,3.0,3.0,88,0.00,,,0.00,TxWx,2013-05-07 08:40:00,
2013-05-07 03:41:00,68.0,64.0,29.98,South,180,3.0,3.0,88,0.00,,,0.00,TxWx,2013-05-07 08:41:00,
2013-05-07 03:43:00,68.0,64.0,29.98,South,180,3.0,3.0,88,0.00,,,0.00,TxWx,2013-05-07 08:43:00,
2013-05-07 03:44:00,68.0,64.0,29.98,South,180,3.0,3.0,88,0.00,,,0.00,TxWx,2013-05-07 08:44:00,
2013-05-07 03:45:00,68.0,64.0,29.97,South,180,3.0,3.0,88,0.00,,,0.00,TxWx,2013-05-07 08:45:00,
2013-05-07 03:46:00,68.0,64.0,29.98,South,180,3.0,3.0,88,0.00,,,0.00,TxWx,2013-05-07 08:46:00,
2013-05-07 03:49:00,68.0,64.0,29.98,SSW,202,2.0,2.0,88,0.00,,,0.00,TxWx,2013-05-07 08:49:00,
2013-05-07 03:51:00,68.0,64.0,29.98,South,180,2.0,2.0,88,0.00,,,0.00,TxWx,2013-05-07 08:51:00,
2013-05-07 03:52:00,68.0,64.0,29.98,SSW,202,2.0,3.0,88,0.00,,,0.00,TxWx,2013-05-07 08:52:00,
2013-05-07 03:53:00,68.0,64.0,29.98,SSW,202,2.0,3.0,88,0.00,,,0.00,TxWx,2013-05-07 08:53:00,
2013-05-07 03:55:00,68.0,64.0,29.98,SW,225,3.0,3.0,88,0.00,,,0.00,TxWx,2013-05-07 08:55:00,
2013-05-07 03:56:00,68.0,64.0,29.98,SSW,202,3.0,3.0,88,0.00,,,0.00,TxWx,2013-05-07 08:56:00,
2013-05-07 03:57:00,68.0,64.0,29.98,SSW,202,3.0,3.0,88,0.00,,,0.00,TxWx,2013-05-07 08:57:00,
2013-05-07 04:00:00,68.0,64.0,29.98,SSW,202,3.0,3.0,89,0.00,,,0.00,TxWx,2013-05-07 09:00:00,
2013-05-07 04:01:00,68.0,64.0,29.98,SW,225,3.0,3.0,89,0.00,,,0.00,TxWx,2013-05-07 09:01:00,
2013-05-07 04:02:00,68.0,64.0,29.98,SSW,202,3.0,3.0,89,0.00,,,0.00,TxWx,2013-05-07 09:02:00,
2013-05-07 04:03:00,68.0,64.0,29.98,SSW,202,3.0,3.0,89,0.00,,,0.00,TxWx,2013-05-07 09:03:00,
2013-05-07 04:06:00,68.0,64.0,29.98,SSW,202,3.0,3.0,89,0.00,,,0.00,TxWx,2013-05-07 09:06:00,
2013-05-07 04:09:00,68.0,64.0,29.98,SSW,202,3.0,3.0,89,0.00,,,0.00,TxWx,2013-05-07 09:09:00,
2013-05-07 04:10:00,68.0,64.0,29.98,SSW,202,3.0,3.0,89,0.00,,,0.00,TxWx,2013-05-07 09:10:00,
2013-05-07 04:11:00,68.0,64.0,29.98,SSW,202,3.0,3.0,89,0.00,,,0.00,TxWx,2013-05-07 09:11:00,
2013-05-07 04:12:00,68.0,64.0,29.98,SSW,202,3.0,3.0,89,0.00,,,0.00,TxWx,2013-05-07 09:12:00,
2013-05-07 04:15:00,68.0,64.0,29.98,SSW,202,3.0,3.0,89,0.00,,,0.00,TxWx,2013-05-07 09:15:00,
2013-05-07 04:16:00,68.0,64.0,29.98,SSW,202,2.0,2.0,89,0.00,,,0.00,TxWx,2013-05-07 09:16:00,
2013-05-07 04:17:00,68.0,64.0,29.98,SW,225,1.0,2.0,89,0.00,,,0.00,TxWx,2013-05-07 09:17:00,
2013-05-07 04:18:00,68.0,65.0,29.98,SW,225,2.0,2.0,89,0.00,,,0.00,TxWx,2013-05-07 09:18:00,
2013-05-07 04:21:00,68.0,65.0,29.98,SSW,202,1.0,1.0,89,0.00,,,0.00,TxWx,2013-05-07 09:21:00,
2013-05-07 04:22:00,68.0,65.0,29.98,SSW,202,1.0,1.0,89,0.00,,,0.00,TxWx,2013-05-07 09:22:00,
2013-05-07 04:24:00,68.0,65.0,29.98,SW,225,1.0,1.0,89,0.00,,,0.00,TxWx,2013-05-07 09:24:00,
2013-05-07 04:25:00,68.0,65.0,29.98,SSW,202,1.0,1.0,89,0.00,,,0.00,TxWx,2013-05-07 09:25:00,
2013-05-07 04:29:00,68.0,65.0,29.98,SSW,202,1.0,1.0,89,0.00,,,0.00,TxWx,2013-05-07 09:29:00,
2013-05-07 04:30:00,68.0,65.0,29.98,South,180,1.0,1.0,89,0.00,,,0.00,TxWx,2013-05-07 09:30:00,
2013-05-07 04:31:00,68.0,65.0,29.98,South,180,1.0,1.0,89,0.00,,,0.00,TxWx,2013-05-07 09:31:00,
2013-05-07 04:32:00,68.0,65.0,29.98,South,180,1.0,2.0,89,0.00,,,0.00,TxWx,2013-05-07 09:32:00,
2013-05-07 04:34:00,68.0,65.0,29.98,South,180,1.0,2.0,90,0.00,,,0.00,TxWx,2013-05-07 09:34:00,
2013-05-07 04:35:00,68.0,65.0,29.98,South,180,1.0,2.0,90,0.00,,,0.00,TxWx,2013-05-07 09:35:00,
2013-05-07 04:37:00,68.0,65.0,29.98,South,180,1.0,2.0,90,0.00,,,0.00,TxWx,2013-05-07 09:37:00,
2013-05-07 04:40:00,68.0,65.0,29.98,SSW,202,1.0,1.0,90,0.00,,,0.00,TxWx,2013-05-07 09:40:00,
2013-05-07 04:42:00,68.0,65.0,29.98,SSW,202,1.0,1.0,90,0.00,,,0.00,TxWx,2013-05-07 09:42:00,
2013-05-07 04:44:00,68.0,65.0,29.98,SW,225,1.0,2.0,90,0.00,,,0.00,TxWx,2013-05-07 09:44:00,
2013-05-07 04:45:00,68.0,65.0,29.98,SW,225,1.0,2.0,90,0.00,,,0.00,TxWx,2013-05-07 09:45:00,
2013-05-07 04:47:00,68.0,65.0,29.98,SW,225,1.0,1.0,90,0.00,,,0.00,TxWx,2013-05-07 09:47:00,
2013-05-07 04:48:00,68.0,65.0,29.98,SW,225,1.0,1.0,90,0.00,,,0.00,TxWx,2013-05-07 09:48:00,
2013-05-07 04:50:00,68.0,65.0,29.98,SW,225,1.0,1.0,90,0.00,,,0.00,TxWx,2013-05-07 09:50:00,
2013-05-07 04:52:00,68.0,65.0,29.98,WSW,247,1.0,2.0,90,0.00,,,0.00,TxWx,2013-05-07 09:52:00,
2013-05-07 04:53:00,68.0,65.0,29.98,WSW,247,2.0,2.0,90,0.00,,,0.00,TxWx,2013-05-07 09:53:00,
2013-05-07 04:54:00,68.0,65.0,29.98,WSW,247,2.0,2.0,90,0.00,,,0.00,TxWx,2013-05-07 09:54:00,
2013-05-07 04:55:00,68.0,65.0,29.98,WSW,247,1.0,1.0,90,0.00,,,0.00,TxWx,2013-05-07 09:55:00,
2013-05-07 04:56:00,68.0,65.0,29.99,WSW,247,1.0,1.0,90,0.00,,,0.00,TxWx,2013-05-07 09:56:00,
2013-05-07 04:58:00,68.0,65.0,29.99,WSW,247,1.0,1.0,90,0.00,,,0.00,TxWx,2013-05-07 09:58:00,
2013-05-07 04:59:00,68.0,65.0,29.99,WSW,247,1.0,2.0,90,0.00,,,0.00,TxWx,2013-05-07 09:59:00,
2013-05-07 05:01:00,68.0,65.0,29.99,WSW,247,2.0,2.0,90,0.00,,,0.00,TxWx,2013-05-07 10:01:00,
2013-05-07 05:02:00,68.0,65.0,29.99,WSW,247,1.0,1.0,90,0.00,,,0.00,TxWx,2013-05-07 10:02:00,
2013-05-07 05:03:00,68.0,65.0,29.99,WSW,247,1.0,1.0,90,0.00,,,0.00,TxWx,2013-05-07 10:03:00,
2013-05-07 05:04:00,68.0,65.0,29.99,West,270,1.0,1.0,90,0.00,,,0.00,TxWx,2013-05-07 10:04:00,
2013-05-07 05:06:00,68.0,65.0,29.99,West,270,1.0,2.0,90,0.00,,,0.00,TxWx,2013-05-07 10:06:00,
2013-05-07 05:09:00,68.0,65.0,29.99,West,270,1.0,2.0,89,0.00,,,0.00,TxWx,2013-05-07 10:09:00,
2013-05-07 05:10:00,68.0,65.0,29.99,West,270,1.0,2.0,90,0.00,,,0.00,TxWx,2013-05-07 10:10:00,
2013-05-07 05:12:00,68.0,65.0,29.99,West,270,1.0,1.0,90,0.00,,,0.00,TxWx,2013-05-07 10:12:00,
2013-05-07 05:15:00,68.0,65.0,29.99,WNW,292,1.0,1.0,90,0.00,,,0.00,TxWx,2013-05-07 10:15:00,
2013-05-07 05:16:00,68.0,65.0,29.99,WNW,292,1.0,1.0,90,0.00,,,0.00,TxWx,2013-05-07 10:16:00,
2013-05-07 05:17:00,68.0,65.0,29.99,NW,315,1.0,1.0,90,0.00,,,0.00,TxWx,2013-05-07 10:17:00,
2013-05-07 05:20:00,67.0,64.0,29.99,NW,315,1.0,1.0,90,0.00,,,0.00,TxWx,2013-05-07 10:20:00,
2013-05-07 05:21:00,68.0,65.0,29.99,NW,315,1.0,1.0,90,0.00,,,0.00,TxWx,2013-05-07 10:21:00,
2013-05-07 05:22:00,68.0,65.0,29.99,NNW,337,1.0,1.0,90,0.00,,,0.00,TxWx,2013-05-07 10:22:00,
2013-05-07 05:23:00,68.0,65.0,29.99,North,0,1.0,1.0,90,0.00,,,0.00,TxWx,2013-05-07 10:23:00,
2013-05-07 05:24:00,67.0,64.0,29.99,NE,45,2.0,2.0,90,0.00,,,0.00,TxWx,2013-05-07 10:24:00,
2013-05-07 05:25:00,67.0,64.0,29.99,NE,45,1.0,2.0,90,0.00,,,0.00,TxWx,2013-05-07 10:25:00,
2013-05-07 05:26:00,67.0,64.0,29.99,NE,45,1.0,2.0,90,0.00,,,0.00,TxWx,2013-05-07 10:26:00,
2013-05-07 05:28:00,67.0,64.0,29.99,North,0,1.0,1.0,90,0.00,,,0.00,TxWx,2013-05-07 10:28:00,
2013-05-07 05:29:00,67.0,64.0,29.99,NW,315,1.0,1.0,90,0.00,,,0.00,TxWx,2013-05-07 10:29:00,
2013-05-07 05:31:00,67.0,64.0,29.99,West,270,0.0,0.0,90,0.00,,,0.00,TxWx,2013-05-07 10:31:00,
2013-05-07 05:32:00,67.0,64.0,29.99,West,270,0.0,0.0,90,0.00,,,0.00,TxWx,2013-05-07 10:32:00,
2013-05-07 05:33:00,67.0,64.0,29.99,West,270,0.0,0.0,90,0.00,,,0.00,TxWx,2013-05-07 10:33:00,
2013-05-07 05:35:00,67.0,64.0,29.99,WSW,247,0.0,0.0,90,0.00,,,0.00,TxWx,2013-05-07 10:35:00,
2013-05-07 05:36:00,67.0,64.0,29.99,WSW,247,0.0,0.0,90,0.00,,,0.00,TxWx,2013-05-07 10:36:00,
2013-05-07 05:37:00,67.0,64.0,29.99,WSW,247,0.0,0.0,90,0.00,,,0.00,TxWx,2013-05-07 10:37:00,
2013-05-07 05:38:00,67.0,64.0,29.99,WSW,247,0.0,0.0,90,0.00,,,0.00,TxWx,2013-05-07 10:38:00,
2013-05-07 05:39:00,67.0,64.0,29.99,WSW,247,0.0,0.0,90,0.00,,,0.00,TxWx,2013-05-07 10:39:00,
2013-05-07 05:43:00,67.0,64.0,29.99,WSW,247,0.0,0.0,90,0.00,,,0.00,TxWx,2013-05-07 10:43:00,
2013-05-07 05:44:00,67.0,64.0,29.99,WSW,247,0.0,0.0,90,0.00,,,0.00,TxWx,2013-05-07 10:44:00,
2013-05-07 05:47:00,67.0,64.0,29.99,SSW,202,1.0,1.0,91,0.00,,,0.00,TxWx,2013-05-07 10:47:00,
2013-05-07 05:48:00,67.0,64.0,29.99,SW,225,1.0,1.0,91,0.00,,,0.00,TxWx,2013-05-07 10:48:00,
2013-05-07 05:49:00,67.0,64.0,29.99,SW,225,1.0,1.0,91,0.00,,,0.00,TxWx,2013-05-07 10:49:00,
2013-05-07 05:50:00,67.0,64.0,29.99,SW,225,1.0,1.0,91,0.00,,,0.00,TxWx,2013-05-07 10:50:00,
2013-05-07 05:52:00,67.0,64.0,29.99,WSW,247,0.0,1.0,91,0.00,,,0.00,TxWx,2013-05-07 10:52:00,
2013-05-07 05:55:00,67.0,64.0,29.99,WSW,247,0.0,0.0,91,0.00,,,0.00,TxWx,2013-05-07 10:55:00,
2013-05-07 05:56:00,67.0,64.0,29.99,SW,225,0.0,1.0,91,0.00,,,0.00,TxWx,2013-05-07 10:56:00,
2013-05-07 05:57:00,67.0,64.0,29.99,South,180,1.0,1.0,91,0.00,,,0.00,TxWx,2013-05-07 10:57:00,
2013-05-07 05:58:00,67.0,64.0,29.99,SSW,202,1.0,1.0,91,0.00,,,0.00,TxWx,2013-05-07 10:58:00,
2013-05-07 06:00:00,67.0,64.0,29.99,East,90,1.0,1.0,91,0.00,,,0.00,TxWx,2013-05-07 11:00:00,
2013-05-07 06:02:00,67.0,64.0,29.99,ENE,67,1.0,1.0,91,0.00,,,0.00,TxWx,2013-05-07 11:02:00,
2013-05-07 06:03:00,68.0,65.0,29.99,ENE,67,1.0,2.0,91,0.00,,,0.00,TxWx,2013-05-07 11:03:00,
2013-05-07 06:04:00,68.0,65.0,29.99,NE,45,1.0,2.0,91,0.00,,,0.00,TxWx,2013-05-07 11:04:00,
2013-05-07 06:06:00,68.0,65.0,29.99,NE,45,2.0,2.0,91,0.00,,,0.00,TxWx,2013-05-07 11:06:00,
2013-05-07 06:08:00,68.0,65.0,29.99,NE,45,2.0,2.0,91,0.00,,,0.00,TxWx,2013-05-07 11:08:00,
2013-05-07 06:09:00,68.0,65.0,29.99,ENE,67,2.0,2.0,91,0.00,,,0.00,TxWx,2013-05-07 11:09:00,
2013-05-07 06:10:00,68.0,65.0,29.99,ENE,67,2.0,2.0,91,0.00,,,0.00,TxWx,2013-05-07 11:10:00,
2013-05-07 06:11:00,68.0,65.0,29.99,ENE,67,2.0,2.0,91,0.00,,,0.00,TxWx,2013-05-07 11:11:00,
2013-05-07 06:13:00,68.0,65.0,29.99,ENE,67,2.0,2.0,91,0.00,,,0.00,TxWx,2013-05-07 11:13:00,
2013-05-07 06:15:00,68.0,65.0,29.99,ENE,67,2.0,2.0,91,0.00,,,0.00,TxWx,2013-05-07 11:15:00,
2013-05-07 06:16:00,68.0,65.0,29.99,ENE,67,2.0,2.0,91,0.00,,,0.00,TxWx,2013-05-07 11:16:00,
2013-05-07 06:17:00,68.0,65.0,29.99,ENE,67,2.0,2.0,91,0.00,,,0.00,TxWx,2013-05-07 11:17:00,
2013-05-07 06:19:00,68.0,65.0,29.99,ENE,67,2.0,2.0,91,0.00,,,0.00,TxWx,2013-05-07 11:19:00,
2013-05-07 06:20:00,68.0,65.0,29.99,ENE,67,2.0,2.0,91,0.00,,,0.00,TxWx,2013-05-07 11:20:00,
2013-05-07 06:22:00,68.0,65.0,29.99,ENE,67,2.0,2.0,91,0.00,,,0.00,TxWx,2013-05-07 11:22:00,
2013-05-07 06:24:00,68.0,65.0,29.99,NE,45,1.0,2.0,91,0.00,,,0.00,TxWx,2013-05-07 11:24:00,
2013-05-07 06:25:00,68.0,65.0,29.99,NE,45,1.0,1.0,91,0.00,,,0.00,TxWx,2013-05-07 11:25:00,
2013-05-07 06:26:00,68.0,65.0,29.99,NNE,22,1.0,1.0,91,0.00,,,0.00,TxWx,2013-05-07 11:26:00,
2013-05-07 06:27:00,68.0,65.0,29.99,NE,45,1.0,1.0,91,0.00,,,0.00,TxWx,2013-05-07 11:27:00,
2013-05-07 06:28:00,68.0,65.0,29.99,ENE,67,1.0,2.0,91,0.00,,,0.00,TxWx,2013-05-07 11:28:00,
2013-05-07 06:32:00,68.0,65.0,29.99,NE,45,2.0,2.0,91,0.00,,,0.00,TxWx,2013-05-07 11:32:00,
2013-05-07 06:33:00,68.0,65.0,29.99,NE,45,2.0,2.0,91,0.00,,,0.00,TxWx,2013-05-07 11:33:00,
2013-05-07 06:35:00,68.0,65.0,29.99,NE,45,2.0,2.0,91,0.00,,,0.00,TxWx,2013-05-07 11:35:00,
2013-05-07 06:37:00,68.0,65.0,29.99,NNE,22,2.0,3.0,91,0.00,,,0.00,TxWx,2013-05-07 11:37:00,
2013-05-07 06:38:00,68.0,65.0,30.00,NNE,22,2.0,2.0,91,0.00,,,0.00,TxWx,2013-05-07 11:38:00,
2013-05-07 06:40:00,68.0,65.0,29.99,NNE,22,2.0,2.0,91,0.00,,,0.00,TxWx,2013-05-07 11:40:00,
2013-05-07 06:43:00,68.0,65.0,29.99,North,0,2.0,3.0,92,0.00,,,0.00,TxWx,2013-05-07 11:43:00,
2013-05-07 06:44:00,68.0,65.0,30.00,NNE,22,3.0,3.0,91,0.00,,,0.00,TxWx,2013-05-07 11:44:00,
2013-05-07 06:45:00,68.0,65.0,30.00,North,0,2.0,2.0,91,0.00,,,0.00,TxWx,2013-05-07 11:45:00,
2013-05-07 06:47:00,68.0,65.0,29.99,NNE,22,2.0,3.0,92,0.00,,,0.00,TxWx,2013-05-07 11:47:00,
2013-05-07 06:50:00,68.0,66.0,29.99,NNE,22,2.0,2.0,92,0.00,,,0.00,TxWx,2013-05-07 11:50:00,
2013-05-07 06:52:00,68.0,66.0,29.99,NE,45,2.0,2.0,92,0.00,,,0.00,TxWx,2013-05-07 11:52:00,
2013-05-07 06:53:00,68.0,66.0,30.00,NNE,22,2.0,2.0,92,0.00,,,0.00,TxWx,2013-05-07 11:53:00,
2013-05-07 06:55:00,68.0,66.0,30.00,NNE,22,2.0,2.0,92,0.00,,,0.00,TxWx,2013-05-07 11:55:00,
2013-05-07 06:57:00,68.0,66.0,30.00,NE,45,2.0,2.0,92,0.00,,,0.00,TxWx,2013-05-07 11:57:00,
2013-05-07 06:59:00,68.0,66.0,30.00,ENE,67,2.0,2.0,92,0.00,,,0.00,TxWx,2013-05-07 11:59:00,
2013-05-07 07:00:00,68.0,66.0,30.00,ENE,67,3.0,3.0,93,0.00,,,0.00,TxWx,2013-05-07 12:00:00,
2013-05-07 07:03:00,68.0,66.0,30.00,ENE,67,3.0,3.0,93,0.00,,,0.00,TxWx,2013-05-07 12:03:00,
2013-05-07 07:05:00,69.0,67.0,30.00,ENE,67,3.0,3.0,92,0.00,,,0.00,TxWx,2013-05-07 12:05:00,
2013-05-07 07:07:00,69.0,67.0,30.00,ENE,67,2.0,2.0,92,0.00,,,0.00,TxWx,2013-05-07 12:07:00,
2013-05-07 07:08:00,69.0,67.0,30.00,NNE,22,1.0,1.0,93,0.00,,,0.00,TxWx,2013-05-07 12:08:00,
2013-05-07 07:13:00,69.0,67.0,30.00,NNE,22,3.0,3.0,93,0.00,,,0.00,TxWx,2013-05-07 12:13:00,
2013-05-07 07:14:00,69.0,67.0,30.00,WNW,292,1.0,1.0,93,0.00,,,0.00,TxWx,2013-05-07 12:14:00,
2013-05-07 07:16:00,69.0,67.0,30.01,NE,45,2.0,3.0,93,0.00,,,0.00,TxWx,2013-05-07 12:16:00,
2013-05-07 07:17:00,69.0,67.0,30.01,NNE,22,1.0,1.0,93,0.00,,,0.00,TxWx,2013-05-07 12:17:00,
2013-05-07 07:19:00,69.0,67.0,30.01,NE,45,3.0,3.0,93,0.00,,,0.00,TxWx,2013-05-07 12:19:00,
2013-05-07 07:20:00,69.0,67.0,30.01,NNE,22,2.0,2.0,93,0.00,,,0.00,TxWx,2013-05-07 12:20:00,
2013-05-07 07:22:00,69.0,67.0,30.01,NNE,22,1.0,2.0,93,0.00,,,0.00,TxWx,2013-05-07 12:22:00,
2013-05-07 07:25:00,69.0,67.0,30.01,NNE,22,2.0,2.0,93,0.00,,,0.00,TxWx,2013-05-07 12:25:00,
2013-05-07 07:26:00,69.0,67.0,30.01,ENE,67,1.0,1.0,93,0.00,,,0.00,TxWx,2013-05-07 12:26:00,
2013-05-07 07:28:00,69.0,67.0,30.01,WNW,292,1.0,1.0,93,0.00,,,0.00,TxWx,2013-05-07 12:28:00,
2013-05-07 07:30:00,69.0,67.0,30.01,WNW,292,0.0,1.0,93,0.00,,,0.00,TxWx,2013-05-07 12:30:00,
2013-05-07 07:31:00,69.0,67.0,30.01,South,180,1.0,1.0,93,0.00,,,0.00,TxWx,2013-05-07 12:31:00,
2013-05-07 07:35:00,69.0,67.0,30.01,ESE,112,2.0,2.0,92,0.00,,,0.00,TxWx,2013-05-07 12:35:00,
2013-05-07 07:36:00,69.0,67.0,30.01,SE,135,1.0,2.0,93,0.00,,,0.00,TxWx,2013-05-07 12:36:00,
2013-05-07 07:37:00,70.0,68.0,30.01,SE,135,2.0,2.0,92,0.00,,,0.00,TxWx,2013-05-07 12:37:00,
2013-05-07 07:38:00,70.0,68.0,30.01,SE,135,1.0,1.0,92,0.00,,,0.00,TxWx,2013-05-07 12:38:00,
2013-05-07 07:42:00,70.0,68.0,30.01,SE,135,1.0,1.0,92,0.00,,,0.00,TxWx,2013-05-07 12:42:00,
2013-05-07 07:44:00,70.0,67.0,30.01,SE,135,1.0,1.0,92,0.00,,,0.00,TxWx,2013-05-07 12:44:00,
2013-05-07 07:45:00,70.0,67.0,30.02,SE,135,3.0,3.0,91,0.00,,,0.00,TxWx,2013-05-07 12:45:00,
2013-05-07 07:47:00,70.0,67.0,30.02,South,180,1.0,1.0,90,0.00,,,0.00,TxWx,2013-05-07 12:47:00,
2013-05-07 07:48:00,70.0,67.0,30.02,South,180,1.0,1.0,90,0.00,,,0.00,TxWx,2013-05-07 12:48:00,
2013-05-07 07:49:00,70.0,67.0,30.01,SSW,202,1.0,1.0,90,0.00,,,0.00,TxWx,2013-05-07 12:49:00,
2013-05-07 07:50:00,70.0,67.0,30.02,SSE,157,2.0,2.0,90,0.00,,,0.00,TxWx,2013-05-07 12:50:00,
2013-05-07 07:54:00,70.0,67.0,30.01,SSE,157,3.0,3.0,89,0.00,,,0.00,TxWx,2013-05-07 12:54:00,
2013-05-07 07:55:00,70.0,67.0,30.01,SSE,157,2.0,3.0,89,0.00,,,0.00,TxWx,2013-05-07 12:55:00,
2013-05-07 07:56:00,70.0,66.0,30.02,SSE,157,3.0,3.0,89,0.00,,,0.00,TxWx,2013-05-07 12:56:00,
2013-05-07 07:57:00,70.0,66.0,30.02,South,180,1.0,1.0,89,0.00,,,0.00,TxWx,2013-05-07 12:57:00,
2013-05-07 07:59:00,70.0,66.0,30.02,SSE,157,3.0,3.0,88,0.00,,,0.00,TxWx,2013-05-07 12:59:00,
2013-05-07 08:00:00,70.0,66.0,30.02,SE,135,2.0,3.0,88,0.00,,,0.00,TxWx,2013-05-07 13:00:00,
2013-05-07 08:01:00,71.0,67.0,30.02,SSE,157,2.0,2.0,88,0.00,,,0.00,TxWx,2013-05-07 13:01:00,
2013-05-07 08:04:00,71.0,67.0,30.02,SSE,157,3.0,3.0,88,0.00,,,0.00,TxWx,2013-05-07 13:04:00,
2013-05-07 08:06:00,70.0,66.0,30.02,SSE,157,5.0,6.0,87,0.00,,,0.00,TxWx,2013-05-07 13:06:00,
2013-05-07 08:08:00,71.0,67.0,30.02,SSE,157,5.0,5.0,87,0.00,,,0.00,TxWx,2013-05-07 13:08:00,
2013-05-07 08:11:00,71.0,67.0,30.02,ESE,112,3.0,4.0,86,0.00,,,0.00,TxWx,2013-05-07 13:11:00,
2013-05-07 08:12:00,71.0,66.0,30.02,East,90,3.0,4.0,86,0.00,,,0.00,TxWx,2013-05-07 13:12:00,
2013-05-07 08:14:00,71.0,66.0,30.02,SSE,157,5.0,5.0,85,0.00,,,0.00,TxWx,2013-05-07 13:14:00,
2013-05-07 08:17:00,71.0,66.0,30.02,SE,135,4.0,5.0,85,0.00,,,0.00,TxWx,2013-05-07 13:17:00,
2013-05-07 08:18:00,71.0,66.0,30.02,ESE,112,4.0,4.0,84,0.00,,,0.00,TxWx,2013-05-07 13:18:00,
2013-05-07 08:19:00,71.0,66.0,30.02,ESE,112,5.0,5.0,84,0.00,,,0.00,TxWx,2013-05-07 13:19:00,
2013-05-07 08:22:00,71.0,66.0,30.02,ESE,112,5.0,5.0,83,0.00,,,0.00,TxWx,2013-05-07 13:22:00,
2013-05-07 08:23:00,71.0,65.0,30.02,SE,135,4.0,4.0,83,0.00,,,0.00,TxWx,2013-05-07 13:23:00,
2013-05-07 08:24:00,71.0,66.0,30.02,ESE,112,4.0,4.0,83,0.00,,,0.00,TxWx,2013-05-07 13:24:00,
2013-05-07 08:25:00,71.0,65.0,30.02,ESE,112,4.0,4.0,83,0.00,,,0.00,TxWx,2013-05-07 13:25:00,
2013-05-07 08:27:00,71.0,65.0,30.02,SE,135,5.0,5.0,83,0.00,,,0.00,TxWx,2013-05-07 13:27:00,
2013-05-07 08:30:00,71.0,65.0,30.02,SE,135,4.0,5.0,82,0.00,,,0.00,TxWx,2013-05-07 13:30:00,
2013-05-07 08:31:00,71.0,65.0,30.02,SE,135,3.0,3.0,82,0.00,,,0.00,TxWx,2013-05-07 13:31:00,
2013-05-07 08:33:00,71.0,65.0,30.02,ESE,112,5.0,5.0,81,0.00,,,0.00,TxWx,2013-05-07 13:33:00,
2013-05-07 08:36:00,71.0,65.0,30.02,SE,135,5.0,5.0,82,0.00,,,0.00,TxWx,2013-05-07 13:36:00,
2013-05-07 08:37:00,72.0,66.0,30.02,SE,135,5.0,5.0,82,0.00,,,0.00,TxWx,2013-05-07 13:37:00,
2013-05-07 08:38:00,71.0,65.0,30.02,SE,135,6.0,6.0,82,0.00,,,0.00,TxWx,2013-05-07 13:38:00,
2013-05-07 08:42:00,72.0,66.0,30.02,ESE,112,5.0,5.0,81,0.00,,,0.00,TxWx,2013-05-07 13:42:00,
2013-05-07 08:43:00,72.0,65.0,30.02,SE,135,4.0,4.0,80,0.00,,,0.00,TxWx,2013-05-07 13:43:00,
2013-05-07 08:47:00,72.0,65.0,30.03,SE,135,5.0,5.0,80,0.00,,,0.00,TxWx,2013-05-07 13:47:00,
2013-05-07 08:49:00,72.0,65.0,30.03,ESE,112,3.0,4.0,80,0.00,,,0.00,TxWx,2013-05-07 13:49:00,
2013-05-07 08:50:00,72.0,65.0,30.03,SE,135,5.0,5.0,80,0.00,,,0.00,TxWx,2013-05-07 13:50:00,
2013-05-07 08:54:00,72.0,65.0,30.03,ESE,112,5.0,6.0,80,0.00,,,0.00,TxWx,2013-05-07 13:54:00,
2013-05-07 08:55:00,72.0,65.0,30.03,ESE,112,6.0,6.0,80,0.00,,,0.00,TxWx,2013-05-07 13:55:00,
2013-05-07 08:57:00,72.0,65.0,30.03,SE,135,6.0,6.0,79,0.00,,,0.00,TxWx,2013-05-07 13:57:00,
2013-05-07 08:59:00,72.0,65.0,30.03,ESE,112,6.0,6.0,79,0.00,,,0.00,TxWx,2013-05-07 13:59:00,
2013-05-07 09:00:00,72.0,65.0,30.03,SE,135,6.0,8.0,78,0.00,,,0.00,TxWx,2013-05-07 14:00:00,
2013-05-07 09:01:00,72.0,65.0,30.03,ESE,112,5.0,5.0,79,0.00,,,0.00,TxWx,2013-05-07 14:01:00,
2013-05-07 09:02:00,72.0,65.0,30.03,ESE,112,7.0,7.0,79,0.00,,,0.00,TxWx,2013-05-07 14:02:00,
2013-05-07 09:06:00,71.0,64.0,30.03,ESE,112,8.0,8.0,80,0.00,,,0.00,TxWx,2013-05-07 14:06:00,
2013-05-07 09:07:00,72.0,65.0,30.03,ESE,112,6.0,6.0,80,0.00,,,0.00,TxWx,2013-05-07 14:07:00,
2013-05-07 09:08:00,72.0,65.0,30.03,ESE,112,6.0,6.0,80,0.00,,,0.00,TxWx,2013-05-07 14:08:00,
2013-05-07 09:12:00,72.0,66.0,30.03,SE,135,9.0,9.0,81,0.00,,,0.00,TxWx,2013-05-07 14:12:00,
2013-05-07 09:13:00,71.0,65.0,30.03,East,90,6.0,6.0,81,0.00,,,0.00,TxWx,2013-05-07 14:13:00,
2013-05-07 09:14:00,71.0,65.0,30.03,ESE,112,8.0,8.0,81,0.00,,,0.00,TxWx,2013-05-07 14:14:00,
2013-05-07 09:15:00,72.0,66.0,30.03,ESE,112,8.0,9.0,81,0.00,,,0.00,TxWx,2013-05-07 14:15:00,
2013-05-07 09:18:00,72.0,66.0,30.03,East,90,7.0,8.0,81,0.00,,,0.00,TxWx,2013-05-07 14:18:00,
2013-05-07 09:19:00,72.0,66.0,30.04,SE,135,8.0,8.0,81,0.00,,,0.00,TxWx,2013-05-07 14:19:00,
2013-05-07 09:20:00,72.0,65.0,30.03,ESE,112,8.0,8.0,80,0.00,,,0.00,TxWx,2013-05-07 14:20:00,
2013-05-07 09:21:00,71.0,64.0,30.03,ESE,112,8.0,9.0,79,0.00,,,0.00,TxWx,2013-05-07 14:21:00,
2013-05-07 09:24:00,72.0,65.0,30.04,ESE,112,9.0,9.0,79,0.00,,,0.00,TxWx,2013-05-07 14:24:00,
2013-05-07 09:26:00,72.0,65.0,30.04,SE,135,5.0,5.0,80,0.00,,,0.00,TxWx,2013-05-07 14:26:00,
2013-05-07 09:27:00,72.0,65.0,30.04,SE,135,7.0,7.0,80,0.00,,,0.00,TxWx,2013-05-07 14:27:00,
2013-05-07 09:29:00,72.0,65.0,30.04,ESE,112,8.0,8.0,79,0.00,,,0.00,TxWx,2013-05-07 14:29:00,
2013-05-07 09:32:00,72.0,65.0,30.04,ESE,112,8.0,8.0,78,0.00,,,0.00,TxWx,2013-05-07 14:32:00,
2013-05-07 09:33:00,72.0,65.0,30.04,ESE,112,6.0,6.0,79,0.00,,,0.00,TxWx,2013-05-07 14:33:00,
2013-05-07 09:34:00,72.0,65.0,30.04,ESE,112,6.0,6.0,79,0.00,,,0.00,TxWx,2013-05-07 14:34:00,
2013-05-07 09:36:00,72.0,65.0,30.04,ESE,112,6.0,7.0,79,0.00,,,0.00,TxWx,2013-05-07 14:36:00,
2013-05-07 09:37:00,72.0,65.0,30.04,ESE,112,6.0,8.0,79,0.00,,,0.00,TxWx,2013-05-07 14:37:00,
2013-05-07 09:40:00,72.0,65.0,30.04,ESE,112,7.0,7.0,79,0.00,,,0.00,TxWx,2013-05-07 14:40:00,
2013-05-07 09:41:00,72.0,65.0,30.04,ESE,112,8.0,8.0,78,0.00,,,0.00,TxWx,2013-05-07 14:41:00,
2013-05-07 09:42:00,72.0,65.0,30.04,ENE,67,6.0,7.0,79,0.00,,,0.00,TxWx,2013-05-07 14:42:00,
2013-05-07 09:43:00,72.0,65.0,30.04,SE,135,8.0,8.0,79,0.00,,,0.00,TxWx,2013-05-07 14:43:00,
2013-05-07 09:44:00,72.0,65.0,30.04,East,90,8.0,8.0,79,0.00,,,0.00,TxWx,2013-05-07 14:44:00,
2013-05-07 09:46:00,72.0,65.0,30.04,ESE,112,7.0,7.0,78,0.00,,,0.00,TxWx,2013-05-07 14:46:00,
2013-05-07 09:47:00,72.0,65.0,30.04,East,90,8.0,8.0,79,0.00,,,0.00,TxWx,2013-05-07 14:47:00,
2013-05-07 09:48:00,72.0,65.0,30.04,SE,135,10.0,10.0,79,0.00,,,0.00,TxWx,2013-05-07 14:48:00,
2013-05-07 09:50:00,72.0,65.0,30.04,ESE,112,10.0,10.0,78,0.00,,,0.00,TxWx,2013-05-07 14:50:00,
2013-05-07 09:51:00,72.0,65.0,30.04,ESE,112,6.0,7.0,78,0.00,,,0.00,TxWx,2013-05-07 14:51:00,
2013-05-07 09:53:00,72.0,65.0,30.04,ESE,112,10.0,10.0,78,0.00,,,0.00,TxWx,2013-05-07 14:53:00,
2013-05-07 09:54:00,72.0,65.0,30.04,East,90,9.0,9.0,80,0.00,,,0.00,TxWx,2013-05-07 14:54:00,
2013-05-07 09:55:00,72.0,65.0,30.04,ESE,112,6.0,6.0,80,0.00,,,0.00,TxWx,2013-05-07 14:55:00,
2013-05-07 09:56:00,72.0,65.0,30.04,ESE,112,7.0,7.0,80,0.00,,,0.00,TxWx,2013-05-07 14:56:00,
2013-05-07 09:58:00,72.0,65.0,30.04,ESE,112,9.0,10.0,80,0.00,,,0.00,TxWx,2013-05-07 14:58:00,
2013-05-07 10:00:00,72.0,65.0,30.04,SE,135,8.0,10.0,80,0.00,,,0.00,TxWx,2013-05-07 15:00:00,
2013-05-07 10:02:00,72.0,65.0,30.04,SE,135,9.0,9.0,80,0.00,,,0.00,TxWx,2013-05-07 15:02:00,
2013-05-07 10:04:00,72.0,66.0,30.04,SE,135,6.0,7.0,81,0.00,,,0.00,TxWx,2013-05-07 15:04:00,
2013-05-07 10:06:00,72.0,65.0,30.04,ESE,112,8.0,8.0,80,0.00,,,0.00,TxWx,2013-05-07 15:06:00,
2013-05-07 10:08:00,72.0,65.0,30.04,ESE,112,8.0,8.0,80,0.00,,,0.00,TxWx,2013-05-07 15:08:00,
2013-05-07 10:11:00,72.0,65.0,30.04,ESE,112,6.0,7.0,80,0.00,,,0.00,TxWx,2013-05-07 15:11:00,
2013-05-07 10:12:00,72.0,66.0,30.04,ESE,112,7.0,7.0,81,0.00,,,0.00,TxWx,2013-05-07 15:12:00,
2013-05-07 10:14:00,72.0,65.0,30.04,ESE,112,6.0,7.0,80,0.00,,,0.00,TxWx,2013-05-07 15:14:00,
2013-05-07 10:17:00,73.0,66.0,30.04,SE,135,7.0,8.0,80,0.00,,,0.00,TxWx,2013-05-07 15:17:00,
2013-05-07 10:18:00,72.0,65.0,30.04,ESE,112,10.0,10.0,80,0.00,,,0.00,TxWx,2013-05-07 15:18:00,
2013-05-07 10:19:00,72.0,65.0,30.04,ESE,112,6.0,8.0,79,0.00,,,0.00,TxWx,2013-05-07 15:19:00,
2013-05-07 10:23:00,72.0,65.0,30.04,ESE,112,6.0,7.0,80,0.00,,,0.00,TxWx,2013-05-07 15:23:00,
2013-05-07 10:25:00,72.0,65.0,30.04,SE,135,6.0,6.0,80,0.00,,,0.00,TxWx,2013-05-07 15:25:00,
2013-05-07 10:26:00,73.0,66.0,30.05,ESE,112,6.0,6.0,80,0.00,,,0.00,TxWx,2013-05-07 15:26:00,
2013-05-07 10:27:00,72.0,65.0,30.05,ESE,112,6.0,6.0,80,0.00,,,0.00,TxWx,2013-05-07 15:27:00,
2013-05-07 10:28:00,72.0,65.0,30.05,SE,135,8.0,8.0,79,0.00,,,0.00,TxWx,2013-05-07 15:28:00,
2013-05-07 10:31:00,73.0,66.0,30.04,ESE,112,5.0,6.0,80,0.00,,,0.00,TxWx,2013-05-07 15:31:00,
2013-05-07 10:32:00,73.0,66.0,30.05,East,90,5.0,5.0,80,0.00,,,0.00,TxWx,2013-05-07 15:32:00,
2013-05-07 10:34:00,72.0,65.0,30.04,East,90,9.0,9.0,79,0.00,,,0.00,TxWx,2013-05-07 15:34:00,
2013-05-07 10:37:00,73.0,66.0,30.04,ESE,112,8.0,9.0,79,0.00,,,0.00,TxWx,2013-05-07 15:37:00,
2013-05-07 10:38:00,72.0,65.0,30.04,ESE,112,10.0,10.0,79,0.00,,,0.00,TxWx,2013-05-07 15:38:00,
2013-05-07 10:39:00,73.0,66.0,30.04,East,90,10.0,10.0,80,0.00,,,0.00,TxWx,2013-05-07 15:39:00,
2013-05-07 10:41:00,73.0,66.0,30.04,SE,135,6.0,6.0,80,0.00,,,0.00,TxWx,2013-05-07 15:41:00,
2013-05-07 10:43:00,72.0,65.0,30.04,ESE,112,11.0,11.0,79,0.00,,,0.00,TxWx,2013-05-07 15:43:00,
2013-05-07 10:44:00,72.0,65.0,30.04,ESE,112,6.0,7.0,79,0.00,,,0.00,TxWx,2013-05-07 15:44:00,
2013-05-07 10:45:00,73.0,66.0,30.04,ENE,67,8.0,8.0,79,0.00,,,0.00,TxWx,2013-05-07 15:45:00,
2013-05-07 10:48:00,72.0,65.0,30.04,ESE,112,6.0,6.0,79,0.00,,,0.00,TxWx,2013-05-07 15:48:00,
2013-05-07 10:49:00,73.0,66.0,30.04,East,90,8.0,8.0,80,0.00,,,0.00,TxWx,2013-05-07 15:49:00,
2013-05-07 10:50:00,73.0,66.0,30.04,ESE,112,6.0,7.0,80,0.00,,,0.00,TxWx,2013-05-07 15:50:00,
2013-05-07 10:54:00,73.0,67.0,30.04,East,90,6.0,6.0,81,0.00,,,0.00,TxWx,2013-05-07 15:54:00,
2013-05-07 10:55:00,73.0,66.0,30.04,ESE,112,8.0,9.0,80,0.00,,,0.00,TxWx,2013-05-07 15:55:00,
2013-05-07 10:56:00,72.0,65.0,30.04,ESE,112,11.0,11.0,79,0.00,,,0.00,TxWx,2013-05-07 15:56:00,
2013-05-07 10:59:00,73.0,66.0,30.04,SE,135,6.0,8.0,80,0.00,,,0.00,TxWx,2013-05-07 15:59:00,
2013-05-07 11:00:00,73.0,66.0,30.04,ENE,67,6.0,6.0,80,0.00,,,0.00,TxWx,2013-05-07 16:00:00,
2013-05-07 11:01:00,73.0,66.0,30.04,East,90,11.0,11.0,79,0.00,,,0.00,TxWx,2013-05-07 16:01:00,
2013-05-07 11:02:00,73.0,66.0,30.04,ESE,112,10.0,10.0,80,0.00,,,0.00,TxWx,2013-05-07 16:02:00,
2013-05-07 11:05:00,72.0,65.0,30.04,SSE,157,7.0,7.0,79,0.00,,,0.00,TxWx,2013-05-07 16:05:00,
2013-05-07 11:06:00,73.0,66.0,30.04,East,90,6.0,6.0,80,0.00,,,0.00,TxWx,2013-05-07 16:06:00,
2013-05-07 11:08:00,73.0,66.0,30.04,SE,135,6.0,6.0,80,0.00,,,0.00,TxWx,2013-05-07 16:08:00,
2013-05-07 11:11:00,73.0,66.0,30.04,East,90,7.0,8.0,79,0.00,,,0.00,TxWx,2013-05-07 16:11:00,
2013-05-07 11:12:00,72.0,65.0,30.04,ESE,112,10.0,11.0,78,0.00,,,0.00,TxWx,2013-05-07 16:12:00,
2013-05-07 11:13:00,73.0,66.0,30.04,ESE,112,8.0,8.0,78,0.00,,,0.00,TxWx,2013-05-07 16:13:00,
2013-05-07 11:14:00,73.0,66.0,30.04,ESE,112,6.0,7.0,78,0.00,,,0.00,TxWx,2013-05-07 16:14:00,
2013-05-07 11:15:00,73.0,66.0,30.04,ESE,112,7.0,8.0,79,0.00,,,0.00,TxWx,2013-05-07 16:15:00,
2013-05-07 11:18:00,72.0,65.0,30.04,ESE,112,10.0,11.0,78,0.00,,,0.00,TxWx,2013-05-07 16:18:00,
2013-05-07 11:20:00,73.0,66.0,30.04,ESE,112,8.0,8.0,79,0.00,,,0.00,TxWx,2013-05-07 16:20:00,
2013-05-07 11:21:00,73.0,66.0,30.04,ESE,112,10.0,10.0,79,0.00,,,0.00,TxWx,2013-05-07 16:21:00,
2013-05-07 11:23:00,73.0,66.0,30.04,ESE,112,6.0,7.0,79,0.00,,,0.00,TxWx,2013-05-07 16:23:00,
2013-05-07 11:24:00,73.0,66.0,30.04,SE,135,11.0,11.0,78,0.00,,,0.00,TxWx,2013-05-07 16:24:00,
2013-05-07 11:26:00,73.0,66.0,30.04,SE,135,10.0,11.0,78,0.00,,,0.00,TxWx,2013-05-07 16:26:00,
2013-05-07 11:27:00,73.0,66.0,30.04,ESE,112,11.0,11.0,78,0.00,,,0.00,TxWx,2013-05-07 16:27:00,
2013-05-07 11:28:00,73.0,66.0,30.04,ESE,112,8.0,9.0,79,0.00,,,0.00,TxWx,2013-05-07 16:28:00,
2013-05-07 11:29:00,73.0,66.0,30.04,East,90,8.0,8.0,78,0.00,,,0.00,TxWx,2013-05-07 16:29:00,
2013-05-07 11:30:00,73.0,66.0,30.05,SE,135,8.0,8.0,78,0.00,,,0.00,TxWx,2013-05-07 16:30:00,
2013-05-07 11:32:00,73.0,65.0,30.04,SE,135,8.0,9.0,77,0.00,,,0.00,TxWx,2013-05-07 16:32:00,
2013-05-07 11:34:00,73.0,65.0,30.04,SE,135,10.0,11.0,77,0.00,,,0.00,TxWx,2013-05-07 16:34:00,
2013-05-07 11:35:00,73.0,66.0,30.04,ESE,112,10.0,10.0,78,0.00,,,0.00,TxWx,2013-05-07 16:35:00,
2013-05-07 11:37:00,73.0,66.0,30.04,SE,135,7.0,7.0,79,0.00,,,0.00,TxWx,2013-05-07 16:37:00,
2013-05-07 11:38:00,73.0,66.0,30.04,East,90,8.0,9.0,78,0.00,,,0.00,TxWx,2013-05-07 16:38:00,
2013-05-07 11:40:00,73.0,66.0,30.04,ESE,112,7.0,7.0,78,0.00,,,0.00,TxWx,2013-05-07 16:40:00,
2013-05-07 11:41:00,73.0,65.0,30.04,ESE,112,10.0,10.0,77,0.00,,,0.00,TxWx,2013-05-07 16:41:00,
2013-05-07 11:42:00,73.0,66.0,30.04,SE,135,5.0,6.0,78,0.00,,,0.00,TxWx,2013-05-07 16:42:00,
2013-05-07 11:44:00,73.0,65.0,30.04,ENE,67,8.0,8.0,77,0.00,,,0.00,TxWx,2013-05-07 16:44:00,
2013-05-07 11:47:00,73.0,65.0,30.04,ESE,112,10.0,10.0,77,0.00,,,0.00,TxWx,2013-05-07 16:47:00,
2013-05-07 11:48:00,73.0,66.0,30.04,East,90,7.0,8.0,78,0.00,,,0.00,TxWx,2013-05-07 16:48:00,
2013-05-07 11:49:00,73.0,65.0,30.04,East,90,8.0,10.0,77,0.00,,,0.00,TxWx,2013-05-07 16:49:00,
2013-05-07 11:52:00,73.0,66.0,30.04,ESE,112,6.0,6.0,78,0.00,,,0.00,TxWx,2013-05-07 16:52:00,
2013-05-07 11:53:00,73.0,66.0,30.04,SE,135,7.0,7.0,78,0.00,,,0.00,TxWx,2013-05-07 16:53:00,
2013-05-07 11:55:00,73.0,65.0,30.04,ESE,112,9.0,9.0,77,0.00,,,0.00,TxWx,2013-05-07 16:55:00,
2013-05-07 11:56:00,73.0,66.0,30.04,ESE,112,8.0,8.0,78,0.00,,,0.00,TxWx,2013-05-07 16:56:00,
2013-05-07 11:59:00,73.0,65.0,30.04,SE,135,10.0,10.0,77,0.00,,,0.00,TxWx,2013-05-07 16:59:00,
2013-05-07 12:00:00,73.0,66.0,30.04,East,90,6.0,8.0,78,0.00,,,0.00,TxWx,2013-05-07 17:00:00,
2013-05-07 12:03:00,73.0,66.0,30.04,ESE,112,9.0,9.0,79,0.00,,,0.00,TxWx,2013-05-07 17:03:00,
2013-05-07 12:04:00,73.0,66.0,30.04,ENE,67,11.0,12.0,79,0.00,,,0.00,TxWx,2013-05-07 17:04:00,
2013-05-07 12:05:00,73.0,66.0,30.04,East,90,8.0,8.0,78,0.00,,,0.00,TxWx,2013-05-07 17:05:00,
2013-05-07 12:07:00,73.0,66.0,30.03,SE,135,10.0,10.0,78,0.00,,,0.00,TxWx,2013-05-07 17:07:00,
2013-05-07 12:08:00,73.0,66.0,30.03,ESE,112,10.0,10.0,78,0.00,,,0.00,TxWx,2013-05-07 17:08:00,
2013-05-07 12:10:00,73.0,66.0,30.03,ESE,112,9.0,10.0,79,0.00,,,0.00,TxWx,2013-05-07 17:10:00,
2013-05-07 12:12:00,73.0,66.0,30.03,East,90,10.0,10.0,78,0.00,,,0.00,TxWx,2013-05-07 17:12:00,
2013-05-07 12:14:00,74.0,67.0,30.03,SE,135,9.0,9.0,79,0.00,,,0.00,TxWx,2013-05-07 17:14:00,
2013-05-07 12:15:00,74.0,67.0,30.03,SE,135,7.0,7.0,78,0.00,,,0.00,TxWx,2013-05-07 17:15:00,
2013-05-07 12:16:00,74.0,66.0,30.03,ENE,67,10.0,10.0,78,0.00,,,0.00,TxWx,2013-05-07 17:16:00,
2013-05-07 12:18:00,73.0,65.0,30.04,SE,135,8.0,8.0,77,0.00,,,0.00,TxWx,2013-05-07 17:18:00,
2013-05-07 12:20:00,73.0,65.0,30.03,ESE,112,12.0,13.0,77,0.00,,,0.00,TxWx,2013-05-07 17:20:00,
2013-05-07 12:22:00,73.0,65.0,30.03,ESE,112,12.0,13.0,76,0.00,,,0.00,TxWx,2013-05-07 17:22:00,
2013-05-07 12:24:00,74.0,66.0,30.03,SE,135,6.0,7.0,78,0.00,,,0.00,TxWx,2013-05-07 17:24:00,
2013-05-07 12:26:00,73.0,65.0,30.03,East,90,8.0,9.0,77,0.00,,,0.00,TxWx,2013-05-07 17:26:00,
2013-05-07 12:27:00,73.0,65.0,30.03,East,90,11.0,11.0,77,0.00,,,0.00,TxWx,2013-05-07 17:27:00,
2013-05-07 12:29:00,73.0,65.0,30.03,ESE,112,10.0,14.0,77,0.00,,,0.00,TxWx,2013-05-07 17:29:00,
2013-05-07 12:31:00,74.0,66.0,30.02,East,90,6.0,6.0,77,0.00,,,0.00,TxWx,2013-05-07 17:31:00,
2013-05-07 12:32:00,74.0,66.0,30.02,East,90,7.0,9.0,77,0.00,,,0.00,TxWx,2013-05-07 17:32:00,
2013-05-07 12:34:00,74.0,66.0,30.02,ESE,112,11.0,11.0,77,0.00,,,0.00,TxWx,2013-05-07 17:34:00,
2013-05-07 12:36:00,73.0,65.0,30.02,ESE,112,10.0,11.0,75,0.00,,,0.00,TxWx,2013-05-07 17:36:00,
2013-05-07 12:38:00,74.0,66.0,30.02,ESE,112,6.0,8.0,77,0.00,,,0.00,TxWx,2013-05-07 17:38:00,
2013-05-07 12:39:00,74.0,66.0,30.02,East,90,9.0,10.0,76,0.00,,,0.00,TxWx,2013-05-07 17:39:00,
2013-05-07 12:40:00,74.0,66.0,30.02,SE,135,6.0,6.0,76,0.00,,,0.00,TxWx,2013-05-07 17:40:00,
2013-05-07 12:42:00,74.0,66.0,30.02,East,90,10.0,11.0,77,0.00,,,0.00,TxWx,2013-05-07 17:42:00,
2013-05-07 12:44:00,74.0,66.0,30.02,ESE,112,14.0,15.0,76,0.00,,,0.00,TxWx,2013-05-07 17:44:00,
2013-05-07 12:46:00,73.0,65.0,30.02,SE,135,12.0,12.0,76,0.00,,,0.00,TxWx,2013-05-07 17:46:00,
2013-05-07 12:47:00,74.0,66.0,30.02,SE,135,6.0,7.0,77,0.00,,,0.00,TxWx,2013-05-07 17:47:00,
2013-05-07 12:48:00,73.0,65.0,30.02,ESE,112,13.0,13.0,76,0.00,,,0.00,TxWx,2013-05-07 17:48:00,
2013-05-07 12:50:00,74.0,66.0,30.02,SE,135,10.0,10.0,77,0.00,,,0.00,TxWx,2013-05-07 17:50:00,
2013-05-07 12:52:00,74.0,66.0,30.02,ESE,112,11.0,11.0,77,0.00,,,0.00,TxWx,2013-05-07 17:52:00,
2013-05-07 12:54:00,73.0,65.0,30.02,SE,135,11.0,11.0,76,0.00,,,0.00,TxWx,2013-05-07 17:54:00,
2013-05-07 12:55:00,74.0,66.0,30.01,SE,135,11.0,11.0,77,0.00,,,0.00,TxWx,2013-05-07 17:55:00,
2013-05-07 12:57:00,73.0,65.0,30.01,ESE,112,14.0,16.0,76,0.00,,,0.00,TxWx,2013-05-07 17:57:00,
2013-05-07 12:59:00,73.0,65.0,30.02,East,90,11.0,13.0,76,0.00,,,0.00,TxWx,2013-05-07 17:59:00,
2013-05-07 13:00:00,73.0,65.0,30.01,ESE,112,11.0,12.0,77,0.00,,,0.00,TxWx,2013-05-07 18:00:00,
2013-05-07 13:03:00,74.0,66.0,30.01,East,90,10.0,11.0,77,0.00,,,0.00,TxWx,2013-05-07 18:03:00,
2013-05-07 13:05:00,73.0,65.0,30.01,East,90,14.0,14.0,77,0.00,,,0.00,TxWx,2013-05-07 18:05:00,
2013-05-07 13:06:00,73.0,65.0,30.01,East,90,11.0,12.0,77,0.00,,,0.00,TxWx,2013-05-07 18:06:00,
2013-05-07 13:07:00,73.0,65.0,30.01,ESE,112,13.0,13.0,77,0.00,,,0.00,TxWx,2013-05-07 18:07:00,
2013-05-07 13:09:00,74.0,66.0,30.01,East,90,11.0,13.0,77,0.00,,,0.00,TxWx,2013-05-07 18:09:00,
2013-05-07 13:11:00,74.0,66.0,30.02,SE,135,9.0,9.0,78,0.00,,,0.00,TxWx,2013-05-07 18:11:00,
2013-05-07 13:12:00,74.0,66.0,30.02,SE,135,12.0,12.0,77,0.00,,,0.00,TxWx,2013-05-07 18:12:00,
2013-05-07 13:14:00,74.0,66.0,30.02,SE,135,10.0,12.0,77,0.00,,,0.00,TxWx,2013-05-07 18:14:00,
2013-05-07 13:16:00,73.0,65.0,30.02,ESE,112,14.0,14.0,76,0.00,,,0.00,TxWx,2013-05-07 18:16:00,
2013-05-07 13:20:00,73.0,65.0,30.02,ESE,112,8.0,8.0,76,0.00,,,0.00,TxWx,2013-05-07 18:20:00,
2013-05-07 13:22:00,73.0,65.0,30.02,ESE,112,12.0,12.0,77,0.00,,,0.00,TxWx,2013-05-07 18:22:00,
2013-05-07 13:23:00,73.0,66.0,30.02,SE,135,14.0,14.0,78,0.00,,,0.00,TxWx,2013-05-07 18:23:00,
2013-05-07 13:26:00,73.0,65.0,30.02,ESE,112,7.0,8.0,77,0.00,,,0.00,TxWx,2013-05-07 18:26:00,
2013-05-07 13:28:00,73.0,65.0,30.02,East,90,9.0,10.0,77,0.00,,,0.00,TxWx,2013-05-07 18:28:00,
2013-05-07 13:29:00,74.0,66.0,30.01,ENE,67,11.0,14.0,77,0.00,,,0.00,TxWx,2013-05-07 18:29:00,
2013-05-07 13:30:00,73.0,65.0,30.01,ESE,112,15.0,15.0,77,0.00,,,0.00,TxWx,2013-05-07 18:30:00,
2013-05-07 13:31:00,73.0,65.0,30.02,ESE,112,14.0,14.0,77,0.00,,,0.00,TxWx,2013-05-07 18:31:00,
2013-05-07 13:33:00,73.0,65.0,30.02,SE,135,13.0,13.0,77,0.00,,,0.00,TxWx,2013-05-07 18:33:00,
2013-05-07 13:36:00,73.0,65.0,30.02,ESE,112,11.0,13.0,77,0.00,,,0.00,TxWx,2013-05-07 18:36:00,
2013-05-07 13:37:00,74.0,66.0,30.01,SE,135,12.0,14.0,77,0.00,,,0.00,TxWx,2013-05-07 18:37:00,
2013-05-07 13:40:00,74.0,66.0,30.01,SE,135,12.0,12.0,78,0.00,,,0.00,TxWx,2013-05-07 18:40:00,
2013-05-07 13:42:00,74.0,66.0,30.01,ESE,112,13.0,13.0,77,0.00,,,0.00,TxWx,2013-05-07 18:42:00,
2013-05-07 13:43:00,74.0,66.0,30.01,East,90,9.0,9.0,78,0.00,,,0.00,TxWx,2013-05-07 18:43:00,
2013-05-07 13:44:00,74.0,66.0,30.01,ESE,112,11.0,11.0,77,0.00,,,0.00,TxWx,2013-05-07 18:44:00,
2013-05-07 13:48:00,74.0,66.0,30.01,SE,135,12.0,13.0,77,0.00,,,0.00,TxWx,2013-05-07 18:48:00,
2013-05-07 13:49:00,74.0,66.0,30.01,ESE,112,9.0,10.0,78,0.00,,,0.00,TxWx,2013-05-07 18:49:00,
2013-05-07 13:50:00,74.0,66.0,30.01,SE,135,10.0,10.0,77,0.00,,,0.00,TxWx,2013-05-07 18:50:00,
2013-05-07 13:54:00,74.0,66.0,30.01,SE,135,10.0,10.0,78,0.00,,,0.00,TxWx,2013-05-07 18:54:00,
2013-05-07 13:55:00,75.0,67.0,30.01,SE,135,8.0,11.0,78,0.00,,,0.00,TxWx,2013-05-07 18:55:00,
2013-05-07 13:56:00,75.0,67.0,30.01,ENE,67,11.0,11.0,77,0.00,,,0.00,TxWx,2013-05-07 18:56:00,
2013-05-07 13:57:00,75.0,67.0,30.01,ESE,112,13.0,13.0,76,0.00,,,0.00,TxWx,2013-05-07 18:57:00,
2013-05-07 13:58:00,75.0,67.0,30.01,East,90,14.0,14.0,76,0.00,,,0.00,TxWx,2013-05-07 18:58:00,
2013-05-07 14:01:00,74.0,65.0,30.01,East,90,7.0,10.0,73,0.00,,,0.00,TxWx,2013-05-07 19:01:00,
2013-05-07 14:04:00,74.0,65.0,30.01,SE,135,12.0,12.0,74,0.00,,,0.00,TxWx,2013-05-07 19:04:00,
2013-05-07 14:05:00,74.0,65.0,30.01,ESE,112,13.0,13.0,75,0.00,,,0.00,TxWx,2013-05-07 19:05:00,
2013-05-07 14:06:00,74.0,66.0,30.01,SE,135,5.0,7.0,75,0.00,,,0.00,TxWx,2013-05-07 19:06:00,
2013-05-07 14:07:00,74.0,65.0,30.01,SE,135,8.0,10.0,74,0.00,,,0.00,TxWx,2013-05-07 19:07:00,
2013-05-07 14:12:00,74.0,64.0,30.01,SE,135,14.0,14.0,72,0.00,,,0.00,TxWx,2013-05-07 19:12:00,
2013-05-07 14:13:00,74.0,64.0,30.01,SE,135,11.0,11.0,72,0.00,,,0.00,TxWx,2013-05-07 19:13:00,
2013-05-07 14:15:00,75.0,66.0,30.01,East,90,10.0,10.0,73,0.00,,,0.00,TxWx,2013-05-07 19:15:00,
2013-05-07 14:16:00,75.0,66.0,30.01,ESE,112,13.0,13.0,73,0.00,,,0.00,TxWx,2013-05-07 19:16:00,
2013-05-07 14:17:00,75.0,66.0,30.01,SE,135,8.0,8.0,74,0.00,,,0.00,TxWx,2013-05-07 19:17:00,
2013-05-07 14:19:00,75.0,66.0,30.01,ESE,112,11.0,13.0,74,0.00,,,0.00,TxWx,2013-05-07 19:19:00,
2013-05-07 14:20:00,75.0,66.0,30.01,ESE,112,12.0,12.0,73,0.00,,,0.00,TxWx,2013-05-07 19:20:00,
2013-05-07 14:22:00,75.0,66.0,30.01,ESE,112,9.0,10.0,73,0.00,,,0.00,TxWx,2013-05-07 19:22:00,
2013-05-07 14:24:00,75.0,66.0,30.01,ESE,112,11.0,13.0,73,0.00,,,0.00,TxWx,2013-05-07 19:24:00,
2013-05-07 14:25:00,75.0,65.0,30.00,ESE,112,7.0,8.0,72,0.00,,,0.00,TxWx,2013-05-07 19:25:00,
2013-05-07 14:27:00,75.0,66.0,30.01,ESE,112,11.0,11.0,73,0.00,,,0.00,TxWx,2013-05-07 19:27:00,
2013-05-07 14:29:00,75.0,65.0,30.01,East,90,6.0,8.0,72,0.00,,,0.00,TxWx,2013-05-07 19:29:00,
2013-05-07 14:31:00,75.0,65.0,30.01,ESE,112,12.0,13.0,72,0.00,,,0.00,TxWx,2013-05-07 19:31:00,
2013-05-07 14:32:00,74.0,64.0,30.01,ESE,112,12.0,12.0,72,0.00,,,0.00,TxWx,2013-05-07 19:32:00,
2013-05-07 14:33:00,74.0,65.0,30.00,SE,135,16.0,16.0,73,0.00,,,0.00,TxWx,2013-05-07 19:33:00,
2013-05-07 14:36:00,74.0,65.0,30.00,SE,135,11.0,11.0,75,0.00,,,0.00,TxWx,2013-05-07 19:36:00,
2013-05-07 14:37:00,74.0,65.0,30.00,SE,135,9.0,11.0,74,0.00,,,0.00,TxWx,2013-05-07 19:37:00,
2013-05-07 14:38:00,74.0,65.0,30.00,SE,135,10.0,10.0,74,0.00,,,0.00,TxWx,2013-05-07 19:38:00,
2013-05-07 14:39:00,74.0,65.0,30.00,SE,135,12.0,12.0,74,0.00,,,0.00,TxWx,2013-05-07 19:39:00,
2013-05-07 14:41:00,74.0,66.0,30.00,ESE,112,13.0,13.0,76,0.00,,,0.00,TxWx,2013-05-07 19:41:00,
2013-05-07 14:43:00,74.0,66.0,30.00,ESE,112,13.0,13.0,75,0.00,,,0.00,TxWx,2013-05-07 19:43:00,
2013-05-07 14:44:00,74.0,66.0,30.00,ESE,112,13.0,14.0,75,0.00,,,0.00,TxWx,2013-05-07 19:44:00,
2013-05-07 14:45:00,74.0,66.0,30.00,SE,135,14.0,16.0,75,0.00,,,0.00,TxWx,2013-05-07 19:45:00,
2013-05-07 14:47:00,74.0,66.0,30.00,ESE,112,12.0,13.0,75,0.00,,,0.00,TxWx,2013-05-07 19:47:00,
2013-05-07 14:48:00,74.0,66.0,30.00,ESE,112,15.0,15.0,76,0.00,,,0.00,TxWx,2013-05-07 19:48:00,
2013-05-07 14:49:00,74.0,66.0,30.00,East,90,11.0,12.0,76,0.00,,,0.00,TxWx,2013-05-07 19:49:00,
2013-05-07 14:50:00,74.0,66.0,30.00,ESE,112,13.0,13.0,77,0.00,,,0.00,TxWx,2013-05-07 19:50:00,
2013-05-07 14:51:00,75.0,67.0,30.00,ESE,112,8.0,9.0,77,0.00,,,0.00,TxWx,2013-05-07 19:51:00,
2013-05-07 14:53:00,74.0,66.0,29.99,East,90,10.0,10.0,77,0.00,,,0.00,TxWx,2013-05-07 19:53:00,
2013-05-07 14:55:00,74.0,66.0,29.99,ESE,112,13.0,13.0,77,0.00,,,0.00,TxWx,2013-05-07 19:55:00,
2013-05-07 14:56:00,74.0,66.0,29.99,East,90,12.0,14.0,77,0.00,,,0.00,TxWx,2013-05-07 19:56:00,
2013-05-07 14:58:00,74.0,66.0,29.99,SE,135,13.0,13.0,77,0.00,,,0.00,TxWx,2013-05-07 19:58:00,
2013-05-07 15:00:00,74.0,66.0,29.99,ESE,112,14.0,14.0,77,0.00,,,0.00,TxWx,2013-05-07 20:00:00,
2013-05-07 15:01:00,74.0,66.0,29.99,East,90,7.0,8.0,77,0.00,,,0.00,TxWx,2013-05-07 20:01:00,
2013-05-07 15:02:00,74.0,66.0,29.99,SE,135,13.0,13.0,77,0.00,,,0.00,TxWx,2013-05-07 20:02:00,
2013-05-07 15:03:00,74.0,67.0,29.99,ESE,112,14.0,14.0,78,0.00,,,0.00,TxWx,2013-05-07 20:03:00,
2013-05-07 15:06:00,74.0,66.0,29.99,SE,135,10.0,11.0,77,0.00,,,0.00,TxWx,2013-05-07 20:06:00,
2013-05-07 15:10:00,74.0,66.0,29.99,ESE,112,11.0,11.0,77,0.00,,,0.00,TxWx,2013-05-07 20:10:00,
2013-05-07 15:11:00,74.0,66.0,29.99,ESE,112,11.0,11.0,77,0.00,,,0.00,TxWx,2013-05-07 20:11:00,
2013-05-07 15:12:00,74.0,66.0,29.99,East,90,11.0,13.0,78,0.00,,,0.00,TxWx,2013-05-07 20:12:00,
2013-05-07 15:13:00,74.0,66.0,29.99,ESE,112,10.0,12.0,78,0.00,,,0.00,TxWx,2013-05-07 20:13:00,
2013-05-07 15:16:00,74.0,66.0,29.99,SE,135,13.0,13.0,78,0.00,,,0.00,TxWx,2013-05-07 20:16:00,
2013-05-07 15:17:00,75.0,67.0,29.99,East,90,12.0,12.0,78,0.00,,,0.00,TxWx,2013-05-07 20:17:00,
2013-05-07 15:18:00,74.0,66.0,29.98,East,90,10.0,13.0,77,0.00,,,0.00,TxWx,2013-05-07 20:18:00,
2013-05-07 15:19:00,74.0,66.0,29.98,East,90,8.0,10.0,77,0.00,,,0.00,TxWx,2013-05-07 20:19:00,
2013-05-07 15:22:00,74.0,66.0,29.98,SE,135,12.0,13.0,77,0.00,,,0.00,TxWx,2013-05-07 20:22:00,
2013-05-07 15:23:00,73.0,65.0,29.98,ESE,112,12.0,14.0,77,0.00,,,0.00,TxWx,2013-05-07 20:23:00,
2013-05-07 15:24:00,74.0,66.0,29.98,ESE,112,14.0,16.0,77,0.00,,,0.00,TxWx,2013-05-07 20:24:00,
2013-05-07 15:26:00,74.0,66.0,29.98,ESE,112,14.0,14.0,77,0.00,,,0.00,TxWx,2013-05-07 20:26:00,
2013-05-07 15:27:00,74.0,66.0,29.98,SE,135,11.0,11.0,77,0.00,,,0.00,TxWx,2013-05-07 20:27:00,
2013-05-07 15:29:00,74.0,66.0,29.98,ESE,112,10.0,11.0,78,0.00,,,0.00,TxWx,2013-05-07 20:29:00,
2013-05-07 15:31:00,74.0,67.0,29.98,East,90,10.0,11.0,78,0.00,,,0.00,TxWx,2013-05-07 20:31:00,
2013-05-07 15:33:00,74.0,66.0,29.97,ESE,112,12.0,13.0,77,0.00,,,0.00,TxWx,2013-05-07 20:33:00,
2013-05-07 15:36:00,75.0,67.0,29.97,SE,135,11.0,13.0,76,0.00,,,0.00,TxWx,2013-05-07 20:36:00,
2013-05-07 15:38:00,74.0,65.0,29.97,East,90,13.0,15.0,75,0.00,,,0.00,TxWx,2013-05-07 20:38:00,
2013-05-07 15:39:00,74.0,65.0,29.97,East,90,13.0,13.0,75,0.00,,,0.00,TxWx,2013-05-07 20:39:00,
2013-05-07 15:42:00,74.0,65.0,29.97,SE,135,11.0,11.0,74,0.00,,,0.00,TxWx,2013-05-07 20:42:00,
2013-05-07 15:43:00,74.0,65.0,29.97,East,90,11.0,12.0,74,0.00,,,0.00,TxWx,2013-05-07 20:43:00,
2013-05-07 15:44:00,74.0,65.0,29.97,ESE,112,13.0,13.0,74,0.00,,,0.00,TxWx,2013-05-07 20:44:00,
2013-05-07 15:45:00,74.0,65.0,29.97,ESE,112,11.0,11.0,75,0.00,,,0.00,TxWx,2013-05-07 20:45:00,
2013-05-07 15:46:00,74.0,65.0,29.97,ESE,112,15.0,16.0,75,0.00,,,0.00,TxWx,2013-05-07 20:46:00,
2013-05-07 15:49:00,74.0,65.0,29.97,SE,135,14.0,14.0,73,0.00,,,0.00,TxWx,2013-05-07 20:49:00,
2013-05-07 15:50:00,74.0,65.0,29.96,ESE,112,8.0,13.0,74,0.00,,,0.00,TxWx,2013-05-07 20:50:00,
2013-05-07 15:52:00,74.0,65.0,29.96,ESE,112,12.0,12.0,75,0.00,,,0.00,TxWx,2013-05-07 20:52:00,
2013-05-07 15:54:00,74.0,65.0,29.96,ESE,112,11.0,11.0,74,0.00,,,0.00,TxWx,2013-05-07 20:54:00,
2013-05-07 15:56:00,74.0,65.0,29.96,ESE,112,12.0,12.0,74,0.00,,,0.00,TxWx,2013-05-07 20:56:00,
2013-05-07 15:58:00,74.0,66.0,29.97,ESE,112,11.0,11.0,75,0.00,,,0.00,TxWx,2013-05-07 20:58:00,
2013-05-07 16:00:00,74.0,65.0,29.96,ESE,112,15.0,15.0,74,0.00,,,0.00,TxWx,2013-05-07 21:00:00,
2013-05-07 16:01:00,74.0,65.0,29.96,SE,135,12.0,14.0,74,0.00,,,0.00,TxWx,2013-05-07 21:01:00,
2013-05-07 16:04:00,74.0,66.0,29.96,East,90,9.0,9.0,75,0.00,,,0.00,TxWx,2013-05-07 21:04:00,
2013-05-07 16:06:00,74.0,65.0,29.96,SE,135,11.0,12.0,74,0.00,,,0.00,TxWx,2013-05-07 21:06:00,
2013-05-07 16:07:00,75.0,66.0,29.96,SE,135,10.0,11.0,74,0.00,,,0.00,TxWx,2013-05-07 21:07:00,
2013-05-07 16:11:00,75.0,65.0,29.96,SE,135,8.0,8.0,72,0.00,,,0.00,TxWx,2013-05-07 21:11:00,
2013-05-07 16:13:00,75.0,65.0,29.96,SSW,202,8.0,8.0,70,0.00,,,0.00,TxWx,2013-05-07 21:13:00,
2013-05-07 16:14:00,76.0,66.0,29.96,ESE,112,7.0,7.0,71,0.00,,,0.00,TxWx,2013-05-07 21:14:00,
2013-05-07 16:16:00,76.0,65.0,29.96,ESE,112,9.0,9.0,70,0.00,,,0.00,TxWx,2013-05-07 21:16:00,
2013-05-07 16:18:00,75.0,64.0,29.96,SE,135,11.0,11.0,70,0.00,,,0.00,TxWx,2013-05-07 21:18:00,
2013-05-07 16:19:00,75.0,64.0,29.96,SSE,157,6.0,8.0,70,0.00,,,0.00,TxWx,2013-05-07 21:19:00,
2013-05-07 16:20:00,75.0,64.0,29.96,SE,135,11.0,13.0,69,0.00,,,0.00,TxWx,2013-05-07 21:20:00,
2013-05-07 16:22:00,75.0,64.0,29.96,SSE,157,10.0,10.0,70,0.00,,,0.00,TxWx,2013-05-07 21:22:00,
2013-05-07 16:24:00,75.0,65.0,29.96,ESE,112,8.0,8.0,70,0.00,,,0.00,TxWx,2013-05-07 21:24:00,
2013-05-07 16:25:00,75.0,64.0,29.96,ESE,112,9.0,10.0,70,0.00,,,0.00,TxWx,2013-05-07 21:25:00,
2013-05-07 16:26:00,75.0,65.0,29.96,ESE,112,11.0,11.0,71,0.00,,,0.00,TxWx,2013-05-07 21:26:00,
2013-05-07 16:27:00,75.0,65.0,29.95,SE,135,12.0,15.0,70,0.00,,,0.00,TxWx,2013-05-07 21:27:00,
2013-05-07 16:28:00,75.0,64.0,29.95,SE,135,10.0,11.0,70,0.00,,,0.00,TxWx,2013-05-07 21:28:00,
2013-05-07 16:29:00,76.0,65.0,29.96,SE,135,10.0,10.0,70,0.00,,,0.00,TxWx,2013-05-07 21:29:00,
2013-05-07 16:33:00,75.0,64.0,29.95,SE,135,9.0,10.0,70,0.00,,,0.00,TxWx,2013-05-07 21:33:00,
2013-05-07 16:35:00,75.0,64.0,29.95,SE,135,10.0,10.0,69,0.00,,,0.00,TxWx,2013-05-07 21:35:00,
2013-05-07 16:37:00,75.0,64.0,29.95,SE,135,11.0,12.0,69,0.00,,,0.00,TxWx,2013-05-07 21:37:00,
2013-05-07 16:38:00,75.0,64.0,29.95,ESE,112,6.0,6.0,69,0.00,,,0.00,TxWx,2013-05-07 21:38:00,
2013-05-07 16:39:00,75.0,64.0,29.95,ESE,112,10.0,10.0,69,0.00,,,0.00,TxWx,2013-05-07 21:39:00,
2013-05-07 16:42:00,76.0,65.0,29.95,SE,135,11.0,11.0,70,0.00,,,0.00,TxWx,2013-05-07 21:42:00,
2013-05-07 16:43:00,75.0,64.0,29.95,SE,135,6.0,6.0,70,0.00,,,0.00,TxWx,2013-05-07 21:43:00,
2013-05-07 16:44:00,75.0,64.0,29.95,SE,135,8.0,9.0,70,0.00,,,0.00,TxWx,2013-05-07 21:44:00,
2013-05-07 16:46:00,76.0,65.0,29.95,East,90,8.0,11.0,70,0.00,,,0.00,TxWx,2013-05-07 21:46:00,
2013-05-07 16:48:00,76.0,66.0,29.95,SE,135,6.0,8.0,71,0.00,,,0.00,TxWx,2013-05-07 21:48:00,
2013-05-07 16:50:00,76.0,65.0,29.95,SE,135,13.0,13.0,70,0.00,,,0.00,TxWx,2013-05-07 21:50:00,
2013-05-07 16:51:00,75.0,64.0,29.95,SE,135,8.0,11.0,70,0.00,,,0.00,TxWx,2013-05-07 21:51:00,
2013-05-07 16:53:00,75.0,64.0,29.95,ESE,112,7.0,7.0,69,0.00,,,0.00,TxWx,2013-05-07 21:53:00,
2013-05-07 16:57:00,76.0,65.0,29.95,East,90,7.0,7.0,70,0.00,,,0.00,TxWx,2013-05-07 21:57:00,
2013-05-07 16:58:00,76.0,65.0,29.95,East,90,5.0,6.0,70,0.00,,,0.00,TxWx,2013-05-07 21:58:00,
2013-05-07 16:59:00,75.0,64.0,29.95,SE,135,11.0,12.0,70,0.00,,,0.00,TxWx,2013-05-07 21:59:00,
2013-05-07 17:00:00,75.0,64.0,29.95,SE,135,10.0,10.0,69,0.00,,,0.00,TxWx,2013-05-07 22:00:00,
2013-05-07 17:01:00,75.0,64.0,29.95,ENE,67,8.0,8.0,69,0.00,,,0.00,TxWx,2013-05-07 22:01:00,
2013-05-07 17:03:00,75.0,64.0,29.95,SE,135,8.0,8.0,69,0.00,,,0.00,TxWx,2013-05-07 22:03:00,
2013-05-07 17:06:00,75.0,64.0,29.95,SE,135,11.0,11.0,70,0.00,,,0.00,TxWx,2013-05-07 22:06:00,
2013-05-07 17:08:00,76.0,65.0,29.95,SE,135,6.0,6.0,70,0.00,,,0.00,TxWx,2013-05-07 22:08:00,
2013-05-07 17:09:00,76.0,66.0,29.95,ESE,112,9.0,10.0,71,0.00,,,0.00,TxWx,2013-05-07 22:09:00,
2013-05-07 17:11:00,75.0,64.0,29.95,SE,135,13.0,13.0,70,0.00,,,0.00,TxWx,2013-05-07 22:11:00,
2013-05-07 17:14:00,75.0,64.0,29.95,SE,135,8.0,8.0,68,0.00,,,0.00,TxWx,2013-05-07 22:14:00,
2013-05-07 17:15:00,75.0,64.0,29.95,SSE,157,11.0,13.0,69,0.00,,,0.00,TxWx,2013-05-07 22:15:00,
2013-05-07 17:16:00,75.0,64.0,29.95,ESE,112,9.0,9.0,70,0.00,,,0.00,TxWx,2013-05-07 22:16:00,
2013-05-07 17:17:00,75.0,64.0,29.95,SE,135,9.0,11.0,69,0.00,,,0.00,TxWx,2013-05-07 22:17:00,
2013-05-07 17:20:00,75.0,65.0,29.95,SE,135,10.0,12.0,71,0.00,,,0.00,TxWx,2013-05-07 22:20:00,
2013-05-07 17:21:00,75.0,65.0,29.95,SE,135,8.0,8.0,70,0.00,,,0.00,TxWx,2013-05-07 22:21:00,
2013-05-07 17:22:00,75.0,64.0,29.95,SE,135,10.0,10.0,70,0.00,,,0.00,TxWx,2013-05-07 22:22:00,
2013-05-07 17:24:00,75.0,64.0,29.95,SE,135,10.0,10.0,69,0.00,,,0.00,TxWx,2013-05-07 22:24:00,
2013-05-07 17:26:00,76.0,65.0,29.95,SE,135,9.0,9.0,69,0.00,,,0.00,TxWx,2013-05-07 22:26:00,
2013-05-07 17:28:00,75.0,64.0,29.95,SE,135,11.0,11.0,69,0.00,,,0.00,TxWx,2013-05-07 22:28:00,
2013-05-07 17:29:00,75.0,64.0,29.95,ESE,112,10.0,11.0,69,0.00,,,0.00,TxWx,2013-05-07 22:29:00,
2013-05-07 17:31:00,76.0,65.0,29.95,SE,135,6.0,6.0,70,0.00,,,0.00,TxWx,2013-05-07 22:31:00,
2013-05-07 17:33:00,76.0,65.0,29.95,SE,135,11.0,12.0,69,0.00,,,0.00,TxWx,2013-05-07 22:33:00,
2013-05-07 17:34:00,75.0,63.0,29.94,SE,135,10.0,11.0,68,0.00,,,0.00,TxWx,2013-05-07 22:34:00,
2013-05-07 17:36:00,75.0,63.0,29.95,SSE,157,13.0,13.0,68,0.00,,,0.00,TxWx,2013-05-07 22:36:00,
2013-05-07 17:37:00,76.0,65.0,29.95,ESE,112,7.0,7.0,68,0.00,,,0.00,TxWx,2013-05-07 22:37:00,
2013-05-07 17:39:00,75.0,64.0,29.95,ESE,112,10.0,10.0,69,0.00,,,0.00,TxWx,2013-05-07 22:39:00,
2013-05-07 17:40:00,75.0,64.0,29.94,ESE,112,8.0,10.0,69,0.00,,,0.00,TxWx,2013-05-07 22:40:00,
2013-05-07 17:41:00,75.0,64.0,29.94,SE,135,9.0,11.0,69,0.00,,,0.00,TxWx,2013-05-07 22:41:00,
2013-05-07 17:42:00,75.0,64.0,29.94,SE,135,9.0,11.0,69,0.00,,,0.00,TxWx,2013-05-07 22:42:00,
2013-05-07 17:43:00,75.0,64.0,29.94,SE,135,10.0,10.0,69,0.00,,,0.00,TxWx,2013-05-07 22:43:00,
2013-05-07 17:45:00,75.0,64.0,29.95,SE,135,13.0,14.0,69,0.00,,,0.00,TxWx,2013-05-07 22:45:00,
2013-05-07 17:46:00,76.0,65.0,29.95,SE,135,8.0,8.0,69,0.00,,,0.00,TxWx,2013-05-07 22:46:00,
2013-05-07 17:48:00,75.0,63.0,29.95,SE,135,6.0,6.0,68,0.00,,,0.00,TxWx,2013-05-07 22:48:00,
2013-05-07 17:51:00,75.0,64.0,29.94,SE,135,11.0,11.0,69,0.00,,,0.00,TxWx,2013-05-07 22:51:00,
2013-05-07 17:52:00,75.0,64.0,29.95,SSE,157,10.0,10.0,68,0.00,,,0.00,TxWx,2013-05-07 22:52:00,
2013-05-07 17:53:00,75.0,64.0,29.95,SE,135,9.0,9.0,69,0.00,,,0.00,TxWx,2013-05-07 22:53:00,
2013-05-07 17:54:00,75.0,64.0,29.94,SE,135,5.0,6.0,69,0.00,,,0.00,TxWx,2013-05-07 22:54:00,
2013-05-07 17:58:00,75.0,64.0,29.94,ESE,112,7.0,7.0,69,0.00,,,0.00,TxWx,2013-05-07 22:58:00,
2013-05-07 17:59:00,75.0,64.0,29.94,SE,135,11.0,11.0,69,0.00,,,0.00,TxWx,2013-05-07 22:59:00,
2013-05-07 18:00:00,75.0,64.0,29.94,ESE,112,15.0,15.0,69,0.00,,,0.00,TxWx,2013-05-07 23:00:00,
2013-05-07 18:03:00,75.0,64.0,29.94,ESE,112,9.0,9.0,69,0.00,,,0.00,TxWx,2013-05-07 23:03:00,
2013-05-07 18:05:00,75.0,64.0,29.93,East,90,8.0,10.0,69,0.00,,,0.00,TxWx,2013-05-07 23:05:00,
2013-05-07 18:09:00,75.0,64.0,29.93,SE,135,10.0,10.0,70,0.00,,,0.00,TxWx,2013-05-07 23:09:00,
2013-05-07 18:10:00,75.0,64.0,29.94,SE,135,6.0,6.0,70,0.00,,,0.00,TxWx,2013-05-07 23:10:00,
2013-05-07 18:13:00,75.0,64.0,29.93,SE,135,10.0,11.0,68,0.00,,,0.00,TxWx,2013-05-07 23:13:00,
2013-05-07 18:14:00,75.0,64.0,29.93,SSE,157,10.0,10.0,68,0.00,,,0.00,TxWx,2013-05-07 23:14:00,
2013-05-07 18:15:00,75.0,64.0,29.94,SSE,157,13.0,13.0,69,0.00,,,0.00,TxWx,2013-05-07 23:15:00,
2013-05-07 18:17:00,75.0,63.0,29.93,SSE,157,5.0,5.0,68,0.00,,,0.00,TxWx,2013-05-07 23:17:00,
2013-05-07 18:19:00,75.0,64.0,29.93,SE,135,11.0,11.0,69,0.00,,,0.00,TxWx,2013-05-07 23:19:00,
2013-05-07 18:20:00,75.0,64.0,29.93,SSE,157,11.0,11.0,68,0.00,,,0.00,TxWx,2013-05-07 23:20:00,
2013-05-07 18:23:00,75.0,64.0,29.93,South,180,7.0,9.0,69,0.00,,,0.00,TxWx,2013-05-07 23:23:00,
2013-05-07 18:24:00,76.0,65.0,29.94,SE,135,6.0,8.0,69,0.00,,,0.00,TxWx,2013-05-07 23:24:00,
2013-05-07 18:25:00,75.0,64.0,29.93,SSE,157,6.0,7.0,69,0.00,,,0.00,TxWx,2013-05-07 23:25:00,
2013-05-07 18:26:00,75.0,64.0,29.93,SSE,157,7.0,8.0,69,0.00,,,0.00,TxWx,2013-05-07 23:26:00,
2013-05-07 18:28:00,75.0,64.0,29.94,SE,135,7.0,8.0,70,0.00,,,0.00,TxWx,2013-05-07 23:28:00,
2013-05-07 18:29:00,75.0,65.0,29.93,ESE,112,7.0,7.0,70,0.00,,,0.00,TxWx,2013-05-07 23:29:00,
2013-05-07 18:30:00,75.0,65.0,29.94,SE,135,10.0,11.0,70,0.00,,,0.00,TxWx,2013-05-07 23:30:00,
2013-05-07 18:35:00,75.0,65.0,29.93,South,180,11.0,11.0,70,0.00,,,0.00,TxWx,2013-05-07 23:35:00,
2013-05-07 18:36:00,75.0,65.0,29.94,SE,135,13.0,13.0,70,0.00,,,0.00,TxWx,2013-05-07 23:36:00,
2013-05-07 18:37:00,75.0,65.0,29.94,SSE,157,10.0,10.0,70,0.00,,,0.00,TxWx,2013-05-07 23:37:00,
2013-05-07 18:40:00,75.0,64.0,29.93,SSE,157,10.0,10.0,69,0.00,,,0.00,TxWx,2013-05-07 23:40:00,
2013-05-07 18:41:00,75.0,64.0,29.93,South,180,10.0,11.0,69,0.00,,,0.00,TxWx,2013-05-07 23:41:00,
2013-05-07 18:42:00,75.0,64.0,29.93,SSE,157,7.0,8.0,69,0.00,,,0.00,TxWx,2013-05-07 23:42:00,
2013-05-07 18:43:00,75.0,64.0,29.94,SSE,157,9.0,9.0,70,0.00,,,0.00,TxWx,2013-05-07 23:43:00,
2013-05-07 18:45:00,75.0,64.0,29.93,SSW,202,7.0,7.0,69,0.00,,,0.00,TxWx,2013-05-07 23:45:00,
2013-05-07 18:46:00,75.0,64.0,29.93,SSE,157,6.0,6.0,69,0.00,,,0.00,TxWx,2013-05-07 23:46:00,
2013-05-07 18:48:00,74.0,63.0,29.94,South,180,10.0,10.0,70,0.00,,,0.00,TxWx,2013-05-07 23:48:00,
2013-05-07 18:49:00,74.0,63.0,29.94,SE,135,5.0,6.0,70,0.00,,,0.00,TxWx,2013-05-07 23:49:00,
2013-05-07 18:51:00,74.0,63.0,29.94,South,180,14.0,14.0,70,0.00,,,0.00,TxWx,2013-05-07 23:51:00,
2013-05-07 18:52:00,74.0,63.0,29.93,SSE,157,8.0,8.0,70,0.00,,,0.00,TxWx,2013-05-07 23:52:00,
2013-05-07 18:55:00,74.0,63.0,29.94,SSE,157,11.0,11.0,70,0.00,,,0.00,TxWx,2013-05-07 23:55:00,
2013-05-07 18:56:00,74.0,63.0,29.93,SSE,157,9.0,11.0,70,0.00,,,0.00,TxWx,2013-05-07 23:56:00,
2013-05-07 18:58:00,74.0,63.0,29.93,SE,135,9.0,10.0,69,0.00,,,0.00,TxWx,2013-05-07 23:58:00,
2013-05-07 19:00:00,74.0,63.0,29.93,SSE,157,10.0,10.0,70,0.00,,,0.00,TxWx,2013-05-08 00:00:00,
2013-05-07 19:02:00,74.0,64.0,29.94,SSE,157,13.0,13.0,70,0.00,,,0.00,TxWx,2013-05-08 00:02:00,
2013-05-07 19:03:00,74.0,64.0,29.93,SSE,157,5.0,8.0,71,0.00,,,0.00,TxWx,2013-05-08 00:03:00,
2013-05-07 19:04:00,74.0,64.0,29.94,South,180,8.0,9.0,71,0.00,,,0.00,TxWx,2013-05-08 00:04:00,
2013-05-07 19:05:00,74.0,64.0,29.93,ESE,112,9.0,10.0,71,0.00,,,0.00,TxWx,2013-05-08 00:05:00,
2013-05-07 19:07:00,74.0,64.0,29.93,SE,135,6.0,6.0,71,0.00,,,0.00,TxWx,2013-05-08 00:07:00,
2013-05-07 19:08:00,74.0,64.0,29.94,SE,135,6.0,6.0,71,0.00,,,0.00,TxWx,2013-05-08 00:08:00,
2013-05-07 19:10:00,74.0,64.0,29.94,South,180,8.0,10.0,71,0.00,,,0.00,TxWx,2013-05-08 00:10:00,
2013-05-07 19:11:00,74.0,64.0,29.93,South,180,10.0,13.0,71,0.00,,,0.00,TxWx,2013-05-08 00:11:00,
2013-05-07 19:14:00,74.0,64.0,29.93,SSE,157,8.0,10.0,71,0.00,,,0.00,TxWx,2013-05-08 00:14:00,
2013-05-07 19:15:00,74.0,64.0,29.93,SW,225,7.0,7.0,72,0.00,,,0.00,TxWx,2013-05-08 00:15:00,
2013-05-07 19:16:00,74.0,64.0,29.93,South,180,6.0,7.0,72,0.00,,,0.00,TxWx,2013-05-08 00:16:00,
2013-05-07 19:19:00,74.0,64.0,29.93,SE,135,5.0,6.0,72,0.00,,,0.00,TxWx,2013-05-08 00:19:00,
2013-05-07 19:21:00,74.0,64.0,29.93,SSE,157,6.0,6.0,72,0.00,,,0.00,TxWx,2013-05-08 00:21:00,
2013-05-07 19:22:00,74.0,64.0,29.93,SSE,157,10.0,13.0,72,0.00,,,0.00,TxWx,2013-05-08 00:22:00,
2013-05-07 19:24:00,74.0,64.0,29.94,SSE,157,12.0,12.0,72,0.00,,,0.00,TxWx,2013-05-08 00:24:00,
2013-05-07 19:25:00,74.0,65.0,29.94,SE,135,8.0,8.0,73,0.00,,,0.00,TxWx,2013-05-08 00:25:00,
2013-05-07 19:27:00,74.0,65.0,29.94,East,90,6.0,6.0,73,0.00,,,0.00,TxWx,2013-05-08 00:27:00,
2013-05-07 19:30:00,74.0,65.0,29.93,SE,135,7.0,7.0,73,0.00,,,0.00,TxWx,2013-05-08 00:30:00,
2013-05-07 19:31:00,74.0,65.0,29.93,SSW,202,5.0,6.0,73,0.00,,,0.00,TxWx,2013-05-08 00:31:00,
2013-05-07 19:32:00,74.0,65.0,29.93,SSW,202,11.0,13.0,73,0.00,,,0.00,TxWx,2013-05-08 00:32:00,
2013-05-07 19:33:00,74.0,65.0,29.93,SSE,157,10.0,10.0,74,0.00,,,0.00,TxWx,2013-05-08 00:33:00,
2013-05-07 19:36:00,73.0,64.0,29.93,SSE,157,6.0,7.0,74,0.00,,,0.00,TxWx,2013-05-08 00:36:00,
2013-05-07 19:37:00,73.0,64.0,29.93,South,180,12.0,12.0,74,0.00,,,0.00,TxWx,2013-05-08 00:37:00,
2013-05-07 19:38:00,73.0,64.0,29.93,SSE,157,9.0,10.0,74,0.00,,,0.00,TxWx,2013-05-08 00:38:00,
2013-05-07 19:41:00,73.0,64.0,29.94,SSE,157,10.0,10.0,74,0.00,,,0.00,TxWx,2013-05-08 00:41:00,
2013-05-07 19:43:00,73.0,64.0,29.93,SE,135,6.0,6.0,75,0.00,,,0.00,TxWx,2013-05-08 00:43:00,
2013-05-07 19:45:00,73.0,65.0,29.93,SSE,157,13.0,13.0,75,0.00,,,0.00,TxWx,2013-05-08 00:45:00,
2013-05-07 19:49:00,73.0,65.0,29.93,SSE,157,7.0,9.0,75,0.00,,,0.00,TxWx,2013-05-08 00:49:00,
2013-05-07 19:50:00,73.0,65.0,29.93,SSE,157,11.0,11.0,75,0.00,,,0.00,TxWx,2013-05-08 00:50:00,
2013-05-07 19:51:00,73.0,65.0,29.93,SSE,157,8.0,8.0,76,0.00,,,0.00,TxWx,2013-05-08 00:51:00,
2013-05-07 19:54:00,73.0,65.0,29.93,SSE,157,4.0,5.0,76,0.00,,,0.00,TxWx,2013-05-08 00:54:00,
2013-05-07 19:55:00,73.0,65.0,29.93,SSW,202,5.0,5.0,76,0.00,,,0.00,TxWx,2013-05-08 00:55:00,
2013-05-07 19:58:00,73.0,65.0,29.93,South,180,9.0,9.0,77,0.00,,,0.00,TxWx,2013-05-08 00:58:00,
2013-05-07 20:00:00,73.0,65.0,29.93,SSE,157,10.0,10.0,77,0.00,,,0.00,TxWx,2013-05-08 01:00:00,
2013-05-07 20:01:00,73.0,65.0,29.94,SSE,157,9.0,11.0,77,0.00,,,0.00,TxWx,2013-05-08 01:01:00,
2013-05-07 20:02:00,73.0,65.0,29.94,South,180,5.0,5.0,77,0.00,,,0.00,TxWx,2013-05-08 01:02:00,
2013-05-07 20:04:00,73.0,66.0,29.94,South,180,6.0,8.0,78,0.00,,,0.00,TxWx,2013-05-08 01:04:00,
2013-05-07 20:05:00,73.0,66.0,29.94,South,180,7.0,7.0,78,0.00,,,0.00,TxWx,2013-05-08 01:05:00,
2013-05-07 20:06:00,73.0,66.0,29.93,SE,135,11.0,11.0,78,0.00,,,0.00,TxWx,2013-05-08 01:06:00,
2013-05-07 20:07:00,73.0,66.0,29.93,SE,135,5.0,6.0,78,0.00,,,0.00,TxWx,2013-05-08 01:07:00,
2013-05-07 20:09:00,73.0,66.0,29.93,ESE,112,10.0,11.0,78,0.00,,,0.00,TxWx,2013-05-08 01:09:00,
2013-05-07 20:10:00,73.0,66.0,29.93,SE,135,8.0,8.0,78,0.00,,,0.00,TxWx,2013-05-08 01:10:00,
2013-05-07 20:11:00,73.0,66.0,29.93,SSE,157,9.0,10.0,78,0.00,,,0.00,TxWx,2013-05-08 01:11:00,
2013-05-07 20:13:00,73.0,66.0,29.94,South,180,10.0,10.0,79,0.00,,,0.00,TxWx,2013-05-08 01:13:00,
2013-05-07 20:14:00,73.0,66.0,29.94,South,180,8.0,8.0,79,0.00,,,0.00,TxWx,2013-05-08 01:14:00,
2013-05-07 20:15:00,73.0,66.0,29.94,SSW,202,6.0,6.0,79,0.00,,,0.00,TxWx,2013-05-08 01:15:00,
2013-05-07 20:17:00,73.0,66.0,29.94,South,180,8.0,10.0,78,0.00,,,0.00,TxWx,2013-05-08 01:17:00,
2013-05-07 20:18:00,73.0,66.0,29.94,SE,135,7.0,8.0,78,0.00,,,0.00,TxWx,2013-05-08 01:18:00,
2013-05-07 20:19:00,73.0,66.0,29.94,South,180,7.0,7.0,78,0.00,,,0.00,TxWx,2013-05-08 01:19:00,
2013-05-07 20:21:00,73.0,66.0,29.94,SSE,157,11.0,11.0,79,0.00,,,0.00,TxWx,2013-05-08 01:21:00,
2013-05-07 20:23:00,73.0,66.0,29.94,SSE,157,8.0,9.0,79,0.00,,,0.00,TxWx,2013-05-08 01:23:00,
2013-05-07 20:24:00,73.0,66.0,29.94,SE,135,6.0,6.0,79,0.00,,,0.00,TxWx,2013-05-08 01:24:00,
2013-05-07 20:25:00,73.0,66.0,29.94,SSE,157,5.0,6.0,79,0.00,,,0.00,TxWx,2013-05-08 01:25:00,
2013-05-07 20:28:00,73.0,66.0,29.94,SE,135,5.0,5.0,79,0.00,,,0.00,TxWx,2013-05-08 01:28:00,
2013-05-07 20:30:00,73.0,66.0,29.94,SSW,202,8.0,8.0,79,0.00,,,0.00,TxWx,2013-05-08 01:30:00,
2013-05-07 20:31:00,73.0,66.0,29.95,SSE,157,4.0,5.0,79,0.00,,,0.00,TxWx,2013-05-08 01:31:00,
2013-05-07 20:34:00,73.0,66.0,29.95,SE,135,5.0,5.0,80,0.00,,,0.00,TxWx,2013-05-08 01:34:00,
2013-05-07 20:35:00,72.0,65.0,29.94,SSE,157,10.0,10.0,80,0.00,,,0.00,TxWx,2013-05-08 01:35:00,
2013-05-07 20:36:00,72.0,65.0,29.95,SSE,157,6.0,7.0,80,0.00,,,0.00,TxWx,2013-05-08 01:36:00,
2013-05-07 20:39:00,72.0,66.0,29.95,South,180,6.0,7.0,81,0.00,,,0.00,TxWx,2013-05-08 01:39:00,
2013-05-07 20:42:00,72.0,66.0,29.95,SSE,157,8.0,8.0,81,0.00,,,0.00,TxWx,2013-05-08 01:42:00,
2013-05-07 20:44:00,72.0,66.0,29.95,SSW,202,10.0,11.0,81,0.00,,,0.00,TxWx,2013-05-08 01:44:00,
2013-05-07 20:45:00,72.0,66.0,29.95,SSW,202,3.0,3.0,81,0.00,,,0.00,TxWx,2013-05-08 01:45:00,
2013-05-07 20:47:00,72.0,66.0,29.95,South,180,8.0,9.0,81,0.00,,,0.00,TxWx,2013-05-08 01:47:00,
2013-05-07 20:48:00,72.0,66.0,29.95,South,180,5.0,5.0,81,0.00,,,0.00,TxWx,2013-05-08 01:48:00,
2013-05-07 20:51:00,72.0,66.0,29.95,SSE,157,5.0,6.0,82,0.00,,,0.00,TxWx,2013-05-08 01:51:00,
2013-05-07 20:53:00,72.0,66.0,29.95,South,180,5.0,5.0,82,0.00,,,0.00,TxWx,2013-05-08 01:53:00,
2013-05-07 20:55:00,72.0,66.0,29.95,SSE,157,5.0,6.0,82,0.00,,,0.00,TxWx,2013-05-08 01:55:00,
2013-05-07 20:57:00,72.0,66.0,29.95,SSW,202,3.0,3.0,82,0.00,,,0.00,TxWx,2013-05-08 01:57:00,
2013-05-07 20:58:00,72.0,66.0,29.95,SSE,157,10.0,11.0,82,0.00,,,0.00,TxWx,2013-05-08 01:58:00,
2013-05-07 20:59:00,72.0,66.0,29.95,SSW,202,5.0,5.0,82,0.00,,,0.00,TxWx,2013-05-08 01:59:00,
2013-05-07 21:02:00,72.0,66.0,29.95,ESE,112,5.0,5.0,82,0.00,,,0.00,TxWx,2013-05-08 02:02:00,
2013-05-07 21:05:00,72.0,66.0,29.96,South,180,8.0,8.0,82,0.00,,,0.00,TxWx,2013-05-08 02:05:00,
2013-05-07 21:06:00,72.0,66.0,29.96,South,180,6.0,6.0,82,0.00,,,0.00,TxWx,2013-05-08 02:06:00,
2013-05-07 21:08:00,72.0,66.0,29.95,SSE,157,5.0,5.0,82,0.00,,,0.00,TxWx,2013-05-08 02:08:00,
2013-05-07 21:10:00,72.0,66.0,29.95,SSE,157,4.0,5.0,82,0.00,,,0.00,TxWx,2013-05-08 02:10:00,
2013-05-07 21:12:00,72.0,66.0,29.96,SSE,157,8.0,8.0,82,0.00,,,0.00,TxWx,2013-05-08 02:12:00,
2013-05-07 21:13:00,72.0,66.0,29.96,South,180,7.0,7.0,83,0.00,,,0.00,TxWx,2013-05-08 02:13:00,
2013-05-07 21:14:00,72.0,66.0,29.96,South,180,6.0,6.0,83,0.00,,,0.00,TxWx,2013-05-08 02:14:00,
2013-05-07 21:17:00,72.0,66.0,29.96,ESE,112,5.0,5.0,83,0.00,,,0.00,TxWx,2013-05-08 02:17:00,
2013-05-07 21:18:00,72.0,66.0,29.96,SSW,202,4.0,5.0,83,0.00,,,0.00,TxWx,2013-05-08 02:18:00,
2013-05-07 21:19:00,72.0,66.0,29.96,SSW,202,6.0,8.0,83,0.00,,,0.00,TxWx,2013-05-08 02:19:00,
2013-05-07 21:21:00,72.0,66.0,29.96,SSW,202,6.0,6.0,83,0.00,,,0.00,TxWx,2013-05-08 02:21:00,
2013-05-07 21:22:00,72.0,66.0,29.96,South,180,10.0,10.0,83,0.00,,,0.00,TxWx,2013-05-08 02:22:00,
2013-05-07 21:23:00,72.0,66.0,29.95,SSW,202,3.0,3.0,83,0.00,,,0.00,TxWx,2013-05-08 02:23:00,
2013-05-07 21:25:00,72.0,67.0,29.96,SSW,202,6.0,6.0,83,0.00,,,0.00,TxWx,2013-05-08 02:25:00,
2013-05-07 21:27:00,72.0,67.0,29.96,SSW,202,4.0,4.0,83,0.00,,,0.00,TxWx,2013-05-08 02:27:00,
2013-05-07 21:28:00,72.0,67.0,29.96,SSE,157,6.0,6.0,83,0.00,,,0.00,TxWx,2013-05-08 02:28:00,
2013-05-07 21:31:00,72.0,67.0,29.95,SSW,202,7.0,7.0,83,0.00,,,0.00,TxWx,2013-05-08 02:31:00,
2013-05-07 21:32:00,72.0,67.0,29.95,South,180,8.0,8.0,83,0.00,,,0.00,TxWx,2013-05-08 02:32:00,
2013-05-07 21:34:00,72.0,67.0,29.96,South,180,8.0,8.0,83,0.00,,,0.00,TxWx,2013-05-08 02:34:00,
2013-05-07 21:36:00,72.0,67.0,29.95,SSE,157,6.0,8.0,83,0.00,,,0.00,TxWx,2013-05-08 02:36:00,
2013-05-07 21:37:00,72.0,67.0,29.96,South,180,3.0,4.0,83,0.00,,,0.00,TxWx,2013-05-08 02:37:00,
2013-05-07 21:39:00,72.0,67.0,29.95,SSE,157,11.0,11.0,83,0.00,,,0.00,TxWx,2013-05-08 02:39:00,
2013-05-07 21:41:00,72.0,67.0,29.95,SSW,202,8.0,10.0,83,0.00,,,0.00,TxWx,2013-05-08 02:41:00,
2013-05-07 21:43:00,72.0,67.0,29.95,South,180,4.0,5.0,83,0.00,,,0.00,TxWx,2013-05-08 02:43:00,
2013-05-07 21:45:00,72.0,67.0,29.95,SSE,157,6.0,6.0,83,0.00,,,0.00,TxWx,2013-05-08 02:45:00,
2013-05-07 21:47:00,72.0,67.0,29.95,South,180,8.0,10.0,83,0.00,,,0.00,TxWx,2013-05-08 02:47:00,
2013-05-07 21:48:00,72.0,67.0,29.95,SSW,202,5.0,6.0,83,0.00,,,0.00,TxWx,2013-05-08 02:48:00,
2013-05-07 21:52:00,72.0,67.0,29.96,SE,135,6.0,6.0,83,0.00,,,0.00,TxWx,2013-05-08 02:52:00,
2013-05-07 21:53:00,72.0,67.0,29.95,SSE,157,10.0,10.0,83,0.00,,,0.00,TxWx,2013-05-08 02:53:00,
2013-05-07 21:54:00,72.0,67.0,29.95,SE,135,5.0,5.0,83,0.00,,,0.00,TxWx,2013-05-08 02:54:00,
2013-05-07 21:55:00,72.0,67.0,29.95,SE,135,5.0,6.0,84,0.00,,,0.00,TxWx,2013-05-08 02:55:00,
2013-05-07 21:58:00,72.0,67.0,29.96,SSE,157,5.0,6.0,84,0.00,,,0.00,TxWx,2013-05-08 02:58:00,
2013-05-07 21:59:00,72.0,67.0,29.95,SSE,157,7.0,8.0,84,0.00,,,0.00,TxWx,2013-05-08 02:59:00,
2013-05-07 22:01:00,72.0,67.0,29.96,SSW,202,7.0,8.0,84,0.00,,,0.00,TxWx,2013-05-08 03:01:00,
2013-05-07 22:03:00,72.0,67.0,29.96,South,180,11.0,11.0,84,0.00,,,0.00,TxWx,2013-05-08 03:03:00,
2013-05-07 22:04:00,72.0,67.0,29.96,SSE,157,4.0,5.0,84,0.00,,,0.00,TxWx,2013-05-08 03:04:00,
2013-05-07 22:05:00,72.0,67.0,29.96,South,180,4.0,4.0,84,0.00,,,0.00,TxWx,2013-05-08 03:05:00,
2013-05-07 22:06:00,72.0,67.0,29.96,SSE,157,9.0,9.0,84,0.00,,,0.00,TxWx,2013-05-08 03:06:00,
2013-05-07 22:07:00,72.0,67.0,29.96,SSE,157,11.0,13.0,84,0.00,,,0.00,TxWx,2013-05-08 03:07:00,
2013-05-07 22:08:00,72.0,67.0,29.96,SSE,157,7.0,8.0,84,0.00,,,0.00,TxWx,2013-05-08 03:08:00,
2013-05-07 22:11:00,72.0,67.0,29.96,South,180,7.0,8.0,84,0.00,,,0.00,TxWx,2013-05-08 03:11:00,
2013-05-07 22:12:00,72.0,67.0,29.96,SSE,157,9.0,9.0,84,0.00,,,0.00,TxWx,2013-05-08 03:12:00,
2013-05-07 22:13:00,72.0,67.0,29.96,SSE,157,5.0,6.0,84,0.00,,,0.00,TxWx,2013-05-08 03:13:00,
2013-05-07 22:16:00,72.0,67.0,29.96,South,180,6.0,8.0,84,0.00,,,0.00,TxWx,2013-05-08 03:16:00,
2013-05-07 22:18:00,72.0,67.0,29.96,SSE,157,3.0,3.0,85,0.00,,,0.00,TxWx,2013-05-08 03:18:00,
2013-05-07 22:21:00,72.0,67.0,29.96,SSE,157,5.0,5.0,85,0.00,,,0.00,TxWx,2013-05-08 03:21:00,
2013-05-07 22:23:00,72.0,67.0,29.96,SE,135,6.0,6.0,85,0.00,,,0.00,TxWx,2013-05-08 03:23:00,
2013-05-07 22:24:00,72.0,67.0,29.96,SE,135,4.0,5.0,85,0.00,,,0.00,TxWx,2013-05-08 03:24:00,
2013-05-07 22:27:00,72.0,67.0,29.96,South,180,10.0,10.0,85,0.00,,,0.00,TxWx,2013-05-08 03:27:00,
2013-05-07 22:28:00,72.0,67.0,29.96,SE,135,7.0,12.0,85,0.00,,,0.00,TxWx,2013-05-08 03:28:00,
2013-05-07 22:29:00,72.0,67.0,29.96,SE,135,6.0,7.0,85,0.00,,,0.00,TxWx,2013-05-08 03:29:00,
2013-05-07 22:30:00,72.0,67.0,29.96,SSE,157,6.0,6.0,86,0.00,,,0.00,TxWx,2013-05-08 03:30:00,
2013-05-07 22:32:00,72.0,67.0,29.96,South,180,4.0,4.0,86,0.00,,,0.00,TxWx,2013-05-08 03:32:00,
2013-05-07 22:33:00,72.0,67.0,29.96,SSE,157,8.0,11.0,86,0.00,,,0.00,TxWx,2013-05-08 03:33:00,
2013-05-07 22:34:00,72.0,67.0,29.96,South,180,6.0,7.0,86,0.00,,,0.00,TxWx,2013-05-08 03:34:00,
2013-05-07 22:35:00,72.0,67.0,29.96,South,180,4.0,5.0,86,0.00,,,0.00,TxWx,2013-05-08 03:35:00,
2013-05-07 22:36:00,72.0,67.0,29.97,South,180,5.0,5.0,86,0.00,,,0.00,TxWx,2013-05-08 03:36:00,
2013-05-07 22:37:00,72.0,67.0,29.97,SSW,202,5.0,6.0,86,0.00,,,0.00,TxWx,2013-05-08 03:37:00,
2013-05-07 22:39:00,72.0,68.0,29.97,South,180,6.0,6.0,86,0.00,,,0.00,TxWx,2013-05-08 03:39:00,
2013-05-07 22:40:00,72.0,68.0,29.97,South,180,5.0,6.0,86,0.00,,,0.00,TxWx,2013-05-08 03:40:00,
2013-05-07 22:41:00,72.0,68.0,29.97,SSW,202,4.0,5.0,86,0.00,,,0.00,TxWx,2013-05-08 03:41:00,
2013-05-07 22:43:00,72.0,68.0,29.98,South,180,3.0,3.0,86,0.00,,,0.00,TxWx,2013-05-08 03:43:00,
2013-05-07 22:45:00,72.0,68.0,29.98,SSE,157,4.0,5.0,86,0.00,,,0.00,TxWx,2013-05-08 03:45:00,
2013-05-07 22:46:00,72.0,68.0,29.98,SSE,157,4.0,5.0,86,0.00,,,0.00,TxWx,2013-05-08 03:46:00,
2013-05-07 22:47:00,72.0,68.0,29.98,SSE,157,4.0,4.0,86,0.00,,,0.00,TxWx,2013-05-08 03:47:00,
2013-05-07 22:48:00,72.0,68.0,29.98,South,180,5.0,5.0,86,0.00,,,0.00,TxWx,2013-05-08 03:48:00,
2013-05-07 22:49:00,72.0,68.0,29.98,South,180,3.0,3.0,86,0.00,,,0.00,TxWx,2013-05-08 03:49:00,
2013-05-07 22:51:00,72.0,68.0,29.98,SE,135,2.0,2.0,86,0.00,,,0.00,TxWx,2013-05-08 03:51:00,
2013-05-07 22:53:00,72.0,68.0,29.98,SE,135,8.0,8.0,86,0.00,,,0.00,TxWx,2013-05-08 03:53:00,
2013-05-07 22:56:00,72.0,68.0,29.98,SSE,157,6.0,6.0,86,0.00,,,0.00,TxWx,2013-05-08 03:56:00,
2013-05-07 22:57:00,72.0,68.0,29.97,South,180,6.0,6.0,87,0.00,,,0.00,TxWx,2013-05-08 03:57:00,
2013-05-07 22:59:00,72.0,68.0,29.97,South,180,10.0,10.0,87,0.00,,,0.00,TxWx,2013-05-08 03:59:00,
2013-05-07 23:00:00,72.0,68.0,29.97,South,180,7.0,7.0,87,0.00,,,0.00,TxWx,2013-05-08 04:00:00,
2013-05-07 23:01:00,72.0,68.0,29.97,South,180,4.0,5.0,87,0.00,,,0.00,TxWx,2013-05-08 04:01:00,
2013-05-07 23:02:00,72.0,68.0,29.97,SSW,202,8.0,10.0,87,0.00,,,0.00,TxWx,2013-05-08 04:02:00,
2013-05-07 23:04:00,72.0,68.0,29.97,SSE,157,8.0,10.0,87,0.00,,,0.00,TxWx,2013-05-08 04:04:00,
2013-05-07 23:06:00,72.0,68.0,29.96,SSE,157,6.0,6.0,87,0.00,,,0.00,TxWx,2013-05-08 04:06:00,
2013-05-07 23:07:00,72.0,68.0,29.97,SW,225,10.0,10.0,87,0.00,,,0.00,TxWx,2013-05-08 04:07:00,
2013-05-07 23:08:00,72.0,68.0,29.97,South,180,13.0,13.0,87,0.00,,,0.00,TxWx,2013-05-08 04:08:00,
2013-05-07 23:09:00,72.0,68.0,29.97,SW,225,8.0,11.0,87,0.00,,,0.00,TxWx,2013-05-08 04:09:00,
2013-05-07 23:12:00,72.0,68.0,29.96,SSW,202,13.0,13.0,87,0.00,,,0.00,TxWx,2013-05-08 04:12:00,
2013-05-07 23:13:00,72.0,68.0,29.96,SSW,202,6.0,6.0,87,0.00,,,0.00,TxWx,2013-05-08 04:13:00,
2013-05-07 23:14:00,72.0,68.0,29.96,South,180,8.0,10.0,87,0.00,,,0.00,TxWx,2013-05-08 04:14:00,
2013-05-07 23:15:00,72.0,68.0,29.96,SSW,202,13.0,14.0,88,0.00,,,0.00,TxWx,2013-05-08 04:15:00,
2013-05-07 23:16:00,72.0,68.0,29.96,South,180,6.0,8.0,88,0.00,,,0.00,TxWx,2013-05-08 04:16:00,
2013-05-07 23:18:00,72.0,68.0,29.95,SSW,202,12.0,12.0,88,0.00,,,0.00,TxWx,2013-05-08 04:18:00,
2013-05-07 23:20:00,72.0,68.0,29.95,SSE,157,11.0,16.0,88,0.00,,,0.00,TxWx,2013-05-08 04:20:00,
2013-05-07 23:21:00,72.0,68.0,29.95,South,180,11.0,11.0,88,0.00,,,0.00,TxWx,2013-05-08 04:21:00,
2013-05-07 23:22:00,72.0,68.0,29.95,South,180,12.0,12.0,88,0.00,,,0.00,TxWx,2013-05-08 04:22:00,
2013-05-07 23:27:00,72.0,68.0,29.94,SSE,157,13.0,13.0,88,0.00,,,0.00,TxWx,2013-05-08 04:27:00,
2013-05-07 23:29:00,72.0,68.0,29.94,SE,135,10.0,10.0,88,0.00,,,0.00,TxWx,2013-05-08 04:29:00,
2013-05-07 23:33:00,72.0,68.0,29.94,SW,225,11.0,11.0,89,0.00,,,0.00,TxWx,2013-05-08 04:33:00,
2013-05-07 23:34:00,72.0,68.0,29.94,SSW,202,11.0,11.0,89,0.00,,,0.00,TxWx,2013-05-08 04:34:00,
2013-05-07 23:35:00,72.0,68.0,29.94,South,180,11.0,14.0,89,0.00,,,0.00,TxWx,2013-05-08 04:35:00,
2013-05-07 23:36:00,72.0,68.0,29.94,South,180,11.0,11.0,89,0.00,,,0.00,TxWx,2013-05-08 04:36:00,
2013-05-07 23:40:00,72.0,69.0,29.93,SSE,157,18.0,18.0,89,0.00,,,0.00,TxWx,2013-05-08 04:40:00,
2013-05-07 23:41:00,72.0,69.0,29.94,SSW,202,14.0,14.0,89,0.00,,,0.00,TxWx,2013-05-08 04:41:00,
2013-05-07 23:46:00,72.0,69.0,29.94,South,180,18.0,18.0,89,0.00,,,0.00,TxWx,2013-05-08 04:46:00,
2013-05-07 23:47:00,72.0,69.0,29.94,SSW,202,9.0,9.0,89,0.00,,,0.00,TxWx,2013-05-08 04:47:00,
2013-05-07 23:49:00,72.0,69.0,29.95,South,180,11.0,12.0,89,0.00,,,0.00,TxWx,2013-05-08 04:49:00,
2013-05-07 23:51:00,72.0,69.0,29.96,SSW,202,6.0,6.0,89,0.00,,,0.00,TxWx,2013-05-08 04:51:00,
2013-05-07 23:53:00,72.0,69.0,29.97,WNW,292,5.0,6.0,89,0.00,,,0.00,TxWx,2013-05-08 04:53:00,
2013-05-07 23:55:00,72.0,69.0,29.97,WSW,247,4.0,5.0,89,0.00,,,0.00,TxWx,2013-05-08 04:55:00,
2013-05-07 23:56:00,72.0,69.0,29.97,WSW,247,7.0,8.0,89,0.00,,,0.00,TxWx,2013-05-08 04:56:00,
2013-05-07 23:57:00,72.0,69.0,29.97,South,180,6.0,6.0,89,0.00,,,0.00,TxWx,2013-05-08 04:57:00,
2013-05-07 23:58:00,72.0,69.0,29.97,SSW,202,5.0,5.0,89,0.00,,,0.00,TxWx,2013-05-08 04:58:00,